GFSWCAN_prec_snow_216.txt.gz
Snowfall_Accumulation
0.0 0.0 0.0 0.0 0.0 0.0 0.0 0.0 0.0 0.0 0.0 0.0 0.0 0.0 0.0 0.0 0.0 0.0 0.0 0.0 0.0 17.7 3.2 0.0 0.0 1.1 1.2 0.7 5.4 5.9 8.6 11.3 10.1 12.2 13.7 12.5 8.7 4.7 3.2 3.4 7.4 3.8 9.3 10.4 11.7 15.0 9.3 0.0 0.0 2.4 2.7 0.6 0.6 0.5
0.0 0.0 0.0 0.0 0.0 0.0 0.0 0.0 0.0 0.0 0.0 0.0 0.0 0.0 0.0 0.0 0.0 0.0 0.0 0.0 0.0 2.3 5.7 0.0 0.0 0.0 0.0 0.0 0.0 0.1 1.7 2.5 2.4 9.1 9.2 8.5 11.4 8.0 5.6 6.4 0.0 9.8 4.3 8.7 6.7 8.1 2.0 0.3 1.5 1.2 0.6 0.3 0.5 0.0
0.0 0.0 0.0 0.0 0.0 0.0 0.0 0.0 0.0 0.0 0.0 0.0 0.0 0.0 0.0 0.0 0.0 0.0 0.0 0.0 0.0 11.8 8.6 0.0 3.4 0.0 0.0 0.0 0.0 0.8 0.0 0.0 0.0 0.0 4.8 9.0 11.0 4.6 7.2 5.6 5.6 4.7 2.6 8.3 4.4 3.1 0.9 0.2 0.2 0.2 0.3 0.2 0.0 0.2
0.0 0.0 0.0 0.0 0.0 0.0 0.0 0.0 0.0 0.0 0.0 0.0 0.0 0.0 0.0 0.0 0.0 0.0 0.0 0.0 0.0 0.5 18.6 11.6 0.0 0.0 0.0 0.0 0.0 0.0 0.0 0.0 0.0 0.0 11.6 12.6 9.9 0.0 3.6 2.8 2.4 1.8 3.9 9.2 8.7 4.3 2.2 0.9 1.1 1.8 0.5 0.1 0.0 0.0
0.0 0.0 0.0 0.0 0.0 0.0 0.0 0.0 0.0 0.0 0.0 0.0 0.0 0.0 0.0 0.0 0.0 0.0 0.0 0.0 0.0 0.0 16.2 8.7 1.1 0.0 0.0 0.0 0.0 0.0 0.0 0.0 0.0 13.2 15.1 9.2 1.4 2.1 0.6 0.9 3.4 1.9 6.5 6.3 14.3 9.5 5.5 3.8 3.2 2.3 1.3 0.2 0.1 0.0
0.0 0.0 0.0 0.0 0.0 0.0 0.0 0.0 0.0 0.0 0.0 0.0 0.0 0.0 0.0 0.0 0.0 0.0 22.1 0.0 0.0 0.0 6.4 8.6 3.3 2.9 0.0 0.0 0.0 0.0 0.0 0.0 0.0 9.5 12.0 6.5 0.0 2.9 8.8 4.2 1.2 1.6 2.1 3.7 6.5 8.7 6.8 5.2 3.6 2.7 2.1 1.5 0.3 0.0
0.0 0.0 0.0 0.0 0.0 0.0 0.0 0.0 0.0 0.0 0.0 0.0 0.0 0.0 0.0 0.0 0.0 0.1 9.2 0.0 0.0 0.0 9.9 13.8 5.9 2.7 0.0 0.0 0.0 0.0 0.0 1.3 1.4 5.3 7.1 2.6 0.8 1.5 6.4 5.6 1.4 1.8 1.9 2.6 3.0 3.6 4.0 4.0 3.5 2.2 1.3 1.4 0.7 0.4
0.0 0.0 0.0 0.0 0.0 0.0 0.0 0.0 0.0 0.0 0.0 0.0 0.0 0.0 0.0 0.0 0.0 2.0 0.0 0.0 0.0 0.0 0.1 14.7 9.9 7.0 0.0 2.9 5.3 0.0 1.7 1.5 4.9 3.4 4.0 1.6 2.0 4.1 11.3 0.4 0.3 0.7 0.6 1.7 1.4 0.9 1.6 1.6 1.5 1.3 0.9 0.7 0.5 0.4
0.0 0.0 0.0 0.0 0.0 0.0 0.0 0.0 0.0 0.0 0.0 0.0 0.0 0.0 0.0 0.0 19.9 3.2 0.0 0.0 0.0 0.0 19.7 7.4 5.7 12.5 0.0 2.0 0.8 2.9 1.4 13.8 1.1 4.4 1.7 2.0 7.3 12.6 6.9 1.6 1.0 0.5 0.5 0.4 0.5 0.1 0.4 0.9 1.0 0.9 0.9 0.7 0.4 1.9
0.0 0.0 0.0 0.0 0.0 0.0 0.0 0.0 0.0 0.0 0.0 0.0 0.0 14.0 58.3 11.7 0.0 0.0 0.0 20.2 18.7 11.8 6.7 6.4 0.5 9.7 0.5 8.1 10.1 7.9 7.4 8.3 9.3 4.5 0.1 7.7 5.5 5.3 2.6 1.6 0.3 1.9 0.4 0.4 0.7 0.6 0.1 0.3 0.4 0.1 0.2 0.3 0.5 0.9
0.0 0.0 0.0 0.0 0.0 0.0 0.0 0.0 0.0 0.0 0.0 0.0 24.5 30.3 6.1 0.0 0.0 12.0 25.9 21.3 11.7 10.0 1.9 0.9 1.0 3.8 0.0 13.0 14.7 8.6 14.6 7.0 6.9 3.9 4.9 7.7 4.3 4.2 2.8 4.0 3.2 2.5 1.5 1.4 1.0 0.4 0.0 0.1 1.1 0.9 0.7 0.6 0.0 0.0
0.0 0.0 0.0 0.0 0.0 0.0 0.0 0.0 0.0 0.0 0.0 0.0 0.0 0.0 1.5 11.2 21.1 21.9 16.8 11.4 4.5 3.8 3.1 2.7 3.0 2.5 7.8 2.5 13.5 14.9 16.8 12.5 9.3 5.2 12.7 6.1 6.9 3.7 3.6 2.7 2.7 3.1 2.7 1.5 0.8 1.9 2.3 1.4 0.7 0.2 0.1 0.3 0.3 0.4
0.0 0.0 0.0 0.0 0.0 0.0 0.0 0.0 0.0 0.0 0.0 0.0 11.0 24.9 31.4 27.5 26.2 17.4 8.6 4.3 3.3 2.2 2.6 2.9 5.3 3.2 2.9 2.1 16.3 13.4 11.9 13.2 5.1 17.3 9.4 5.4 3.4 1.6 1.3 0.9 1.5 1.9 2.2 2.3 2.3 1.8 1.8 2.6 3.2 3.0 3.6 5.5 5.8 7.5
0.0 0.0 0.0 0.0 0.0 0.0 0.0 0.0 0.0 0.0 0.0 14.8 19.1 24.8 24.5 19.7 12.7 9.1 4.0 3.2 2.3 3.0 3.3 4.7 9.0 8.4 6.8 10.3 14.4 18.6 10.9 8.7 12.5 12.8 5.8 8.2 8.2 5.0 2.4 2.0 1.7 3.2 3.6 3.1 3.5 5.6 6.0 7.3 8.9 10.3 10.9 11.9 10.4 11.6
0.0 0.0 0.0 0.0 0.0 0.0 0.0 0.0 0.0 0.0 7.4 15.7 14.9 16.2 10.7 12.9 8.2 7.0 5.5 3.9 3.6 5.3 8.7 12.2 13.6 12.0 11.9 14.4 10.5 10.4 11.7 8.9 6.7 6.7 12.4 11.0 7.6 3.8 3.2 2.5 3.0 4.2 5.0 5.9 6.4 6.4 7.1 6.7 5.5 7.8 8.9 8.7 7.0 7.6
0.0 0.0 0.0 0.0 0.0 0.0 0.0 0.0 1.1 2.5 7.9 7.9 8.5 8.2 7.6 9.1 9.3 8.9 7.7 7.8 3.6 8.4 5.1 12.2 18.5 18.0 15.8 11.0 10.1 7.5 5.9 6.4 10.4 9.4 7.9 5.1 4.3 4.0 4.3 4.6 5.9 6.8 6.9 6.8 6.7 5.9 5.7 5.4 4.5 5.6 6.1 5.6 5.8 4.8
0.0 2.0 0.0 0.0 0.0 0.0 0.0 3.2 3.9 5.9 6.0 5.4 8.0 8.6 7.5 8.3 10.8 9.7 8.8 7.8 4.2 10.7 11.1 9.0 10.3 11.3 10.1 7.9 8.6 7.8 10.4 11.2 10.9 9.1 5.5 4.5 5.0 5.9 7.0 7.4 8.0 7.8 7.2 6.2 5.8 5.4 5.8 5.4 4.3 3.2 4.3 6.2 4.7 4.6
0.4 0.0 0.0 0.0 0.0 0.0 3.9 2.7 3.1 3.0 3.1 5.9 8.2 10.3 7.9 11.3 10.8 8.8 8.2 6.7 9.7 8.7 6.1 10.2 3.5 4.7 5.1 5.7 6.7 11.7 10.4 9.0 6.7 6.8 8.0 8.2 7.7 8.0 8.6 8.9 9.5 8.1 6.9 7.1 6.4 6.1 6.2 5.9 4.6 5.6 5.2 5.2 3.9 4.0
0.4 0.0 0.0 0.0 0.0 4.1 6.6 5.2 1.7 3.8 6.4 6.1 7.7 6.6 5.9 7.5 7.7 8.7 7.3 6.3 9.2 8.7 8.1 7.8 6.3 5.6 8.2 9.6 9.8 9.1 8.9 7.0 8.1 9.2 9.9 9.9 9.4 9.0 9.9 9.2 9.0 8.6 7.7 8.1 6.6 6.1 6.4 6.0 5.3 5.0 4.7 4.1 3.9 3.9
0.0 0.0 0.0 0.0 0.0 2.6 3.0 2.9 1.1 0.4 4.5 5.4 5.4 3.9 3.1 5.1 3.6 2.7 2.4 3.6 5.4 10.5 9.9 8.2 10.3 12.6 12.2 12.3 11.4 10.2 10.2 7.8 6.6 6.0 8.7 10.4 11.3 8.7 9.1 7.6 7.7 7.5 6.2 6.3 6.2 5.6 4.6 4.1 4.2 3.9 3.3 2.5 3.0 3.0
0.0 0.0 0.0 0.0 0.2 0.2 0.9 2.1 2.4 1.1 1.7 2.6 1.5 0.6 2.1 0.5 0.4 0.5 0.3 1.4 5.9 9.9 12.1 14.1 13.6 14.0 14.1 13.1 10.3 8.6 8.5 6.6 7.3 5.6 6.9 9.3 10.1 6.5 7.5 7.7 6.7 5.9 5.2 5.7 5.2 5.5 4.2 4.0 3.2 2.7 3.3 3.7 3.0 3.7
0.0 0.0 2.3 0.0 2.7 1.9 1.4 0.0 0.5 1.5 1.4 1.3 0.9 1.1 1.3 1.7 0.9 1.1 0.5 1.5 6.9 9.4 10.4 10.8 10.7 9.6 8.7 9.8 10.7 9.0 9.5 6.1 5.3 4.9 5.6 4.8 6.8 6.8 7.7 8.1 6.2 6.1 5.8 5.6 4.3 3.7 3.1 2.7 2.4 2.4 2.7 3.1 3.2 3.8
0.0 3.1 6.4 3.9 3.8 1.0 0.5 0.2 0.5 0.4 0.8 1.0 1.0 1.2 1.3 2.7 2.0 0.5 1.1 1.6 6.4 8.8 7.0 5.6 6.7 6.5 6.8 8.6 6.1 6.5 7.4 5.8 5.8 6.0 6.1 6.0 5.8 5.9 5.3 5.7 4.9 4.0 3.8 4.0 3.1 3.3 3.5 2.9 2.6 2.9 2.9 2.6 3.9 3.5
0.0 5.9 6.5 4.2 2.7 2.4 0.9 1.6 0.7 0.3 0.2 0.6 0.9 0.5 0.9 0.9 0.1 0.8 1.9 4.1 6.9 4.3 3.7 5.1 4.2 3.9 3.9 3.7 4.9 5.8 7.2 5.2 4.6 4.8 5.2 3.2 2.8 3.3 2.4 2.9 3.0 3.2 3.7 3.3 2.8 3.3 3.2 3.8 3.9 3.4 3.1 3.5 3.9 3.3
3.8 2.5 3.4 2.6 1.3 1.0 0.4 0.4 0.7 0.4 0.3 0.1 0.3 0.6 0.9 0.0 0.7 0.8 1.6 5.1 4.2 3.9 3.8 3.5 2.2 2.2 3.3 4.6 5.5 5.2 3.9 2.7 2.6 2.8 3.5 2.4 2.4 2.6 2.3 2.3 2.4 2.7 2.6 2.5 2.6 3.4 3.8 3.4 3.7 3.2 3.1 3.1 3.6 3.5
2.1 0.6 0.9 0.9 0.8 0.6 0.1 0.3 0.3 0.5 0.2 0.5 1.0 0.7 0.3 0.7 0.8 1.9 3.2 5.5 4.6 4.3 4.6 4.5 3.6 2.2 2.0 2.1 2.4 2.2 2.3 1.8 1.5 1.9 2.4 1.7 2.0 2.6 2.4 2.3 2.3 2.3 2.0 3.1 3.7 4.1 3.2 2.6 2.9 2.5 3.2 2.9 3.5 3.6
1.2 1.0 0.3 0.0 1.5 2.1 1.9 1.2 1.2 1.4 1.4 1.6 1.6 1.1 1.6 1.8 2.4 3.9 4.2 4.1 3.6 3.8 2.8 2.5 1.7 1.5 1.8 1.9 1.1 1.1 0.9 0.6 0.8 1.8 2.2 1.8 1.7 1.9 2.3 3.9 4.0 4.0 2.6 3.0 3.4 3.6 3.6 3.5 3.4 3.1 3.2 3.6 3.4 3.7
0.2 0.4 0.8 1.5 2.2 2.3 3.4 2.7 2.4 2.6 2.8 2.5 2.3 2.1 2.0 2.2 3.7 4.7 4.3 3.9 3.2 1.8 1.2 1.0 1.0 1.2 1.3 1.6 1.6 1.5 1.3 1.1 1.2 1.5 1.6 1.6 1.4 2.2 2.5 2.2 2.2 1.7 1.8 2.3 2.5 2.4 2.9 3.3 3.9 3.8 4.0 3.7 3.7 3.4
0.7 0.7 0.7 1.0 1.3 1.0 1.7 2.3 2.7 2.8 2.2 2.0 2.2 2.0 2.1 2.4 5.2 5.0 4.4 3.3 2.4 1.6 1.6 1.5 2.3 1.3 1.2 2.1 1.2 1.1 1.5 1.8 2.7 3.0 3.5 4.5 3.6 3.1 2.0 1.7 1.6 1.6 1.4 1.6 1.5 1.7 2.4 2.6 3.1 3.0 4.0 3.9 4.2 4.2
0.4 0.4 0.3 0.1 0.3 0.4 2.6 1.4 1.8 1.5 0.3 0.9 0.5 0.5 0.7 4.0 6.0 4.5 4.0 3.0 2.7 3.1 3.7 2.9 2.6 1.6 2.2 1.1 2.5 1.6 2.0 2.1 2.6 3.4 4.2 3.9 3.6 2.9 1.6 1.4 1.2 1.3 1.3 1.5 1.6 1.5 1.5 1.2 1.7 1.9 2.4 2.6 3.9 4.5
0.5 1.1 1.4 1.0 1.3 2.3 1.9 0.8 1.1 1.2 1.4 1.3 1.4 1.4 2.2 3.2 4.4 2.8 3.1 4.3 2.7 2.2 1.8 1.9 1.9 2.3 2.2 2.2 2.7 2.4 3.3 2.8 2.7 2.9 3.3 3.6 2.7 1.9 1.6 1.2 1.3 1.2 1.3 1.2 1.4 1.6 1.9 1.7 2.5 2.8 2.3 2.5 2.6 3.1
1.4 2.2 2.4 2.1 2.7 2.2 2.3 3.4 2.3 2.6 2.1 2.1 2.1 1.1 2.4 2.5 1.8 3.3 2.4 2.7 3.1 2.9 2.6 2.9 3.0 3.6 3.6 4.3 3.8 3.7 3.4 2.9 2.3 2.0 2.0 1.9 1.9 1.6 1.3 0.9 1.2 1.4 1.4 1.3 1.4 1.4 1.5 2.1 2.6 2.7 2.8 2.4 2.5 2.4
1.3 1.7 1.7 2.3 2.1 2.6 2.8 3.5 2.9 3.0 2.6 2.4 2.6 2.7 2.9 2.3 2.7 4.3 2.0 2.5 5.6 5.8 4.7 4.4 4.8 4.6 4.7 3.9 3.2 3.3 3.1 2.6 2.0 1.6 1.5 1.2 0.9 0.7 0.7 1.0 1.0 1.3 1.4 1.5 1.6 1.5 1.5 1.4 1.6 1.6 1.5 1.5 1.5 1.3

GFSWCAN_prec_snow_219.txt.gz
Snowfall_Accumulation
0.0 0.0 0.0 0.0 0.0 0.0 0.0 0.0 0.0 0.0 0.0 0.0 0.0 0.0 0.0 0.0 0.0 0.0 0.0 0.0 0.0 20.6 4.6 0.0 0.0 1.1 1.2 0.7 5.4 5.9 8.6 11.3 10.1 12.2 13.7 15.6 10.4 5.6 3.2 3.4 7.4 3.8 9.5 11.0 12.3 16.5 10.7 0.0 0.0 2.4 2.7 0.6 0.6 0.5
0.0 0.0 0.0 0.0 0.0 0.0 0.0 0.0 0.0 0.0 0.0 0.0 0.0 0.0 0.0 0.0 0.0 0.0 0.0 0.0 0.0 2.3 7.3 0.0 0.0 0.0 0.0 0.0 0.0 0.1 1.7 2.5 2.4 9.1 9.2 8.5 13.6 9.6 6.5 6.9 0.0 10.0 4.3 8.7 6.7 8.1 2.0 0.3 1.5 1.2 0.6 0.3 0.5 0.0
0.0 0.0 0.0 0.0 0.0 0.0 0.0 0.0 0.0 0.0 0.0 0.0 0.0 0.0 0.0 0.0 0.0 0.0 0.0 0.0 0.0 11.8 8.6 0.0 3.4 0.0 0.0 0.0 0.0 0.8 0.0 0.0 0.0 0.0 4.8 9.0 12.8 4.6 8.8 6.5 5.6 4.7 2.6 8.3 4.4 3.1 0.9 0.2 0.2 0.2 0.3 0.2 0.0 0.2
0.0 0.0 0.0 0.0 0.0 0.0 0.0 0.0 0.0 0.0 0.0 0.0 0.0 0.0 0.0 0.0 0.0 0.0 0.0 0.0 0.0 0.5 19.7 12.3 0.0 0.0 0.0 0.0 0.0 0.0 0.0 0.0 0.0 0.0 13.5 14.9 12.0 0.0 4.6 2.8 2.4 1.8 3.9 9.2 8.7 4.3 2.2 0.9 1.1 1.8 0.5 0.1 0.0 0.0
0.0 0.0 0.0 0.0 0.0 0.0 0.0 0.0 0.0 0.0 0.0 0.0 0.0 0.0 0.0 0.0 0.0 0.0 0.0 0.0 0.0 0.0 16.2 8.7 1.1 0.0 0.0 0.0 0.0 0.0 0.0 0.0 2.2 15.8 17.7 11.0 2.5 3.1 1.6 1.7 3.9 1.9 6.5 6.3 14.3 9.5 5.5 3.8 3.2 2.3 1.3 0.2 0.1 0.0
0.0 0.0 0.0 0.0 0.0 0.0 0.0 0.0 0.0 0.0 0.0 0.0 0.0 0.0 0.0 0.0 0.0 0.0 22.1 0.0 0.0 0.0 6.6 9.7 3.3 2.9 0.0 0.0 0.0 0.0 0.0 0.0 2.3 11.4 13.5 7.9 0.0 2.9 10.3 5.0 1.2 1.6 2.1 3.7 6.5 8.7 6.8 5.2 3.6 2.7 2.1 1.5 0.3 0.0
0.0 0.0 0.0 0.0 0.0 0.0 0.0 0.0 0.0 0.0 0.0 0.0 0.0 0.0 0.0 0.0 0.0 0.1 10.7 0.0 0.0 0.0 10.5 14.7 5.9 2.7 0.0 0.0 0.0 0.0 0.0 1.3 1.4 6.3 8.0 3.1 0.8 1.5 7.9 6.4 1.4 1.8 1.9 2.6 3.0 3.6 4.0 4.0 3.5 2.2 1.3 1.4 0.7 0.4
0.0 0.0 0.0 0.0 0.0 0.0 0.0 0.0 0.0 0.0 0.0 0.0 0.0 0.0 0.0 0.0 0.0 2.0 0.0 0.0 0.0 0.0 0.1 16.2 10.7 7.1 0.0 3.0 5.4 0.0 1.7 1.7 5.7 4.5 5.2 2.4 2.6 4.9 12.2 0.4 0.3 0.7 0.6 1.7 1.4 0.9 1.6 1.6 1.5 1.3 0.9 0.7 0.5 0.4
0.0 0.0 0.0 0.0 0.0 0.0 0.0 0.0 0.0 0.0 0.0 0.0 0.0 0.0 0.0 0.0 21.2 3.2 0.0 0.0 0.0 0.0 21.5 8.5 5.7 12.5 0.0 2.1 0.9 3.1 1.6 14.1 1.8 5.0 1.7 2.0 7.9 13.2 6.9 1.6 1.0 0.5 0.5 0.4 0.5 0.1 0.4 0.9 1.0 0.9 0.9 0.7 0.4 1.9
0.0 0.0 0.0 0.0 0.0 0.0 0.0 0.0 0.0 0.0 0.0 0.0 0.0 15.6 59.5 12.2 0.0 0.0 0.0 21.7 21.8 16.8 9.5 7.1 0.5 9.7 0.5 8.1 10.2 8.0 7.5 8.4 9.3 4.5 0.1 7.9 5.5 5.3 2.6 1.6 0.3 1.9 0.4 0.4 0.7 0.7 0.1 0.3 0.4 0.1 0.2 0.3 0.5 0.9
0.0 0.0 0.0 0.0 0.0 0.0 0.0 0.0 0.0 0.0 0.0 0.0 25.0 30.7 6.1 0.0 0.0 12.0 28.8 23.3 13.9 12.2 3.2 1.5 1.0 3.8 0.0 13.0 14.7 8.6 14.6 7.0 6.9 3.9 4.9 7.7 4.3 4.2 2.8 4.0 3.2 2.5 1.5 1.4 1.0 0.4 0.0 0.1 1.1 0.9 0.7 0.6 0.0 0.0
0.0 0.0 0.0 0.0 0.0 0.0 0.0 0.0 0.0 0.0 0.0 0.0 0.0 0.0 1.5 11.2 22.9 22.8 17.5 11.6 4.5 3.8 3.2 2.8 3.1 2.5 7.8 2.5 13.5 14.9 16.8 12.6 9.3 5.2 13.0 6.1 6.9 3.7 3.6 2.7 2.7 3.1 2.7 1.5 0.8 1.9 2.3 1.4 0.7 0.2 0.1 0.3 0.3 0.4
0.0 0.0 0.0 0.0 0.0 0.0 0.0 0.0 0.0 0.0 0.0 0.0 11.0 24.9 31.4 27.5 26.4 17.4 8.6 4.3 3.3 2.2 2.7 2.9 5.3 3.2 2.9 2.1 16.3 13.4 12.0 13.3 5.1 17.4 9.4 5.4 3.4 1.6 1.3 0.9 1.5 1.9 2.2 2.3 2.3 1.8 1.8 2.6 3.2 3.0 3.6 5.5 5.8 7.5
0.0 0.0 0.0 0.0 0.0 0.0 0.0 0.0 0.0 0.0 0.0 14.8 19.1 24.8 24.5 19.7 12.7 9.1 4.0 3.2 2.3 3.0 3.3 4.7 9.0 8.4 6.9 10.4 14.5 18.7 10.9 8.7 12.9 13.0 5.8 8.2 8.2 5.0 2.4 2.0 1.7 3.2 3.6 3.1 3.5 5.6 6.0 7.3 8.9 10.3 10.9 11.9 10.4 11.6
0.0 0.0 0.0 0.0 0.0 0.0 0.0 0.0 0.0 0.0 7.4 15.7 14.9 16.2 10.7 12.9 8.2 7.0 5.5 3.9 3.6 5.3 8.7 12.2 13.8 12.0 11.9 14.7 10.5 10.4 12.0 8.9 6.9 6.7 12.4 11.0 7.6 3.8 3.2 2.5 3.0 4.2 5.0 5.9 6.4 6.4 7.1 6.7 5.5 7.8 8.9 8.7 7.0 7.6
0.0 0.0 0.0 0.0 0.0 0.0 0.0 0.0 1.1 2.5 7.9 7.9 8.5 8.2 7.6 9.1 9.3 8.9 7.7 7.8 3.6 8.4 5.1 12.2 18.7 18.1 15.8 11.0 10.2 7.5 6.0 6.4 10.4 9.4 7.9 5.1 4.3 4.0 4.3 4.6 5.9 6.8 6.9 6.8 6.7 5.9 5.7 5.4 4.5 5.6 6.1 5.6 5.8 4.8
0.0 2.0 0.0 0.0 0.0 0.0 0.0 3.2 3.9 5.9 6.0 5.4 8.0 8.6 7.5 8.3 10.8 9.7 8.8 7.8 4.2 10.7 11.3 9.1 10.4 11.3 10.1 7.9 8.6 7.8 10.4 11.2 10.9 9.1 5.5 4.5 5.0 5.9 7.0 7.4 8.0 7.8 7.2 6.2 5.8 5.4 5.8 5.4 4.3 3.2 4.3 6.2 4.7 4.6
0.4 0.0 0.0 0.0 0.0 0.0 3.9 2.7 3.1 3.0 3.1 5.9 8.2 10.3 7.9 11.3 10.8 8.8 8.2 6.7 10.1 9.1 6.2 10.2 3.5 4.7 5.1 5.7 6.7 11.7 10.4 9.0 6.7 6.8 8.0 8.2 7.7 8.0 8.6 8.9 9.5 8.1 6.9 7.1 6.4 6.1 6.2 5.9 4.6 5.6 5.2 5.2 3.9 4.0
0.4 0.0 0.0 0.0 0.0 4.1 6.6 5.2 1.7 3.8 6.4 6.1 7.7 6.6 5.9 7.5 7.7 8.7 7.3 6.3 9.2 8.7 8.1 7.8 6.3 5.6 8.2 9.6 9.8 9.1 8.9 7.0 8.1 9.2 9.9 9.9 9.4 9.0 9.9 9.2 9.0 8.6 7.7 8.1 6.6 6.1 6.4 6.0 5.3 5.0 4.7 4.1 3.9 3.9
0.0 0.0 0.0 0.0 0.0 2.6 3.0 2.9 1.1 0.4 4.5 5.4 5.4 3.9 3.1 5.1 3.6 2.7 2.4 3.6 5.4 10.5 9.9 8.2 10.3 12.6 12.2 12.3 11.4 10.2 10.2 7.8 6.6 6.0 8.7 10.4 11.3 8.7 9.1 7.6 7.7 7.5 6.2 6.3 6.2 5.6 4.6 4.1 4.2 3.9 3.3 2.5 3.0 3.0
0.0 0.0 0.0 0.0 0.2 0.2 0.9 2.1 2.4 1.1 1.7 2.6 1.5 0.6 2.1 0.5 0.4 0.5 0.3 1.4 5.9 9.9 12.1 14.1 13.6 14.0 14.1 13.1 10.3 8.6 8.5 6.6 7.3 5.6 6.9 9.3 10.1 6.5 7.5 7.7 6.7 5.9 5.2 5.7 5.2 5.5 4.2 4.0 3.2 2.7 3.3 3.7 3.0 3.7
0.0 0.0 2.3 0.0 2.7 1.9 1.4 0.0 0.5 1.5 1.4 1.3 0.9 1.1 1.3 1.7 0.9 1.1 0.5 1.5 6.9 9.4 10.4 10.8 10.7 9.6 8.7 9.8 10.7 9.0 9.5 6.1 5.3 4.9 5.6 4.8 6.8 6.8 7.7 8.1 6.2 6.1 5.8 5.6 4.3 3.7 3.1 2.7 2.4 2.4 2.7 3.1 3.2 3.8
0.0 3.1 6.4 3.9 3.8 1.0 0.5 0.2 0.5 0.4 0.8 1.0 1.0 1.2 1.3 2.7 2.0 0.5 1.1 1.6 6.4 8.8 7.0 5.6 6.7 6.5 6.8 8.6 6.1 6.5 7.4 5.8 5.8 6.0 6.1 6.0 5.8 5.9 5.3 5.7 4.9 4.0 3.8 4.0 3.1 3.3 3.5 2.9 2.6 2.9 2.9 2.6 3.9 3.5
0.0 5.9 6.5 4.2 2.7 2.4 0.9 1.6 0.7 0.3 0.2 0.6 0.9 0.5 0.9 0.9 0.1 0.8 1.9 4.1 6.9 4.3 3.7 5.1 4.2 3.9 3.9 3.7 4.9 5.8 7.2 5.2 4.6 4.8 5.2 3.2 2.8 3.3 2.4 2.9 3.0 3.2 3.7 3.3 2.8 3.3 3.2 3.8 3.9 3.4 3.1 3.5 3.9 3.4
3.8 2.5 3.4 2.6 1.3 1.0 0.4 0.4 0.7 0.4 0.3 0.1 0.3 0.6 0.9 0.0 0.7 0.8 1.6 5.1 4.2 3.9 3.8 3.5 2.2 2.2 3.3 4.6 5.5 5.2 3.9 2.7 2.6 2.8 3.5 2.4 2.4 2.6 2.3 2.3 2.4 2.7 2.6 2.5 2.6 3.4 3.8 3.4 3.7 3.2 3.1 3.1 3.6 3.5
2.1 0.6 0.9 0.9 0.8 0.6 0.1 0.3 0.3 0.5 0.2 0.5 1.0 0.7 0.3 0.7 0.8 1.9 3.2 5.5 4.6 4.3 4.6 4.5 3.6 2.2 2.0 2.1 2.4 2.2 2.3 1.8 1.5 1.9 2.4 1.7 2.0 2.6 2.4 2.3 2.3 2.3 2.0 3.1 3.7 4.1 3.2 2.6 2.9 2.5 3.2 2.9 3.5 3.6
1.2 1.0 0.3 0.0 1.5 2.1 1.9 1.2 1.2 1.4 1.4 1.6 1.6 1.1 1.6 1.8 2.4 3.9 4.2 4.1 3.6 3.8 2.8 2.5 1.7 1.5 1.8 1.9 1.1 1.1 0.9 0.6 0.8 1.8 2.2 1.8 1.7 1.9 2.3 3.9 4.0 4.0 2.6 3.0 3.4 3.6 3.6 3.5 3.4 3.1 3.2 3.6 3.4 3.7
0.2 0.4 0.8 1.5 2.2 2.3 3.4 2.7 2.4 2.6 2.8 2.5 2.3 2.1 2.0 2.2 3.7 4.7 4.3 3.9 3.2 1.8 1.2 1.0 1.0 1.2 1.3 1.6 1.6 1.5 1.3 1.1 1.2 1.5 1.6 1.6 1.4 2.2 2.5 2.2 2.2 1.7 1.8 2.3 2.5 2.4 2.9 3.3 3.9 3.8 4.0 3.7 3.7 3.4
0.7 0.7 0.7 1.0 1.3 1.0 1.7 2.3 2.7 2.8 2.2 2.0 2.2 2.0 2.1 2.4 5.2 5.0 4.4 3.3 2.4 1.6 1.6 1.5 2.3 1.3 1.2 2.1 1.2 1.1 1.5 1.8 2.7 3.0 3.5 4.5 3.6 3.1 2.0 1.7 1.6 1.6 1.4 1.6 1.5 1.7 2.4 2.6 3.1 3.0 4.0 3.9 4.2 4.2
0.4 0.4 0.3 0.1 0.3 0.4 2.6 1.4 1.8 1.5 0.3 0.9 0.5 0.5 0.7 4.0 6.0 4.5 4.0 3.0 2.7 3.1 3.7 2.9 2.6 1.6 2.2 1.1 2.5 1.6 2.0 2.1 2.6 3.4 4.2 3.9 3.6 2.9 1.6 1.4 1.2 1.3 1.3 1.5 1.6 1.5 1.5 1.2 1.7 1.9 2.4 2.6 3.9 4.5
0.5 1.1 1.4 1.0 1.3 2.3 1.9 0.8 1.1 1.2 1.4 1.3 1.4 1.4 2.2 3.2 4.4 2.8 3.1 4.3 2.7 2.2 1.8 1.9 1.9 2.3 2.2 2.2 2.7 2.4 3.3 2.8 2.7 2.9 3.3 3.6 2.7 1.9 1.6 1.2 1.3 1.2 1.3 1.2 1.4 1.6 1.9 1.7 2.5 2.8 2.3 2.5 2.6 3.1
1.4 2.2 2.4 2.1 2.7 2.2 2.3 3.4 2.3 2.6 2.1 2.1 2.1 1.1 2.4 2.5 1.8 3.3 2.4 2.7 3.1 2.9 2.6 2.9 3.0 3.6 3.6 4.3 3.8 3.7 3.4 2.9 2.3 2.0 2.0 1.9 1.9 1.6 1.3 0.9 1.2 1.4 1.4 1.3 1.4 1.4 1.5 2.1 2.6 2.7 2.8 2.4 2.5 2.4
1.4 1.7 1.7 2.3 2.1 2.6 2.8 3.5 2.9 3.0 2.6 2.4 2.6 2.7 2.9 2.3 2.7 4.3 2.0 2.5 5.6 5.8 4.7 4.4 4.8 4.6 4.7 3.9 3.2 3.3 3.1 2.6 2.0 1.6 1.5 1.2 0.9 0.7 0.7 1.0 1.0 1.3 1.4 1.5 1.6 1.5 1.5 1.4 1.6 1.6 1.5 1.5 1.5 1.3

GFSWCAN_prec_snow_225.txt.gz
Snowfall_Accumulation
0.0 0.0 0.0 0.0 0.0 0.0 0.0 0.0 0.0 0.0 0.0 0.0 0.0 0.0 0.0 0.0 0.0 0.0 0.0 0.0 0.0 24.4 6.7 0.0 0.0 1.1 1.2 0.7 5.4 5.9 8.6 11.3 10.1 12.2 13.7 18.7 14.3 5.6 3.2 3.4 7.4 3.8 9.5 11.0 12.3 17.9 14.0 0.0 0.0 2.4 2.7 0.6 0.6 0.5
0.0 0.0 0.0 0.0 0.0 0.0 0.0 0.0 0.0 0.0 0.0 0.0 0.0 0.0 0.0 0.0 0.0 0.0 0.0 0.0 0.0 2.3 8.7 0.0 0.0 0.0 0.0 0.0 0.0 0.1 1.7 2.5 2.4 9.1 9.2 8.5 16.3 11.0 6.5 7.2 0.0 10.0 4.3 8.7 6.7 8.1 2.0 0.3 1.5 1.2 0.6 0.3 0.5 0.0
0.0 0.0 0.0 0.0 0.0 0.0 0.0 0.0 0.0 0.0 0.0 0.0 0.0 0.0 0.0 0.0 0.0 0.0 0.0 0.0 0.0 14.8 10.6 0.0 3.4 0.0 0.0 0.0 0.0 2.6 0.0 0.0 0.0 0.0 4.8 9.0 14.7 4.6 11.1 6.5 5.6 4.7 2.6 8.3 4.4 3.1 0.9 0.2 0.2 0.2 0.3 0.2 0.0 0.2
0.0 0.0 0.0 0.0 0.0 0.0 0.0 0.0 0.0 0.0 0.0 0.0 0.0 0.0 0.0 0.0 0.0 0.0 0.0 0.0 0.0 0.5 20.8 12.6 0.0 0.0 0.0 0.0 0.0 0.0 0.0 0.0 0.0 0.0 18.6 19.8 16.3 0.0 7.1 2.8 2.4 1.8 3.9 9.2 8.7 4.3 2.2 0.9 1.1 1.8 0.5 0.1 0.0 0.0
0.0 0.0 0.0 0.0 0.0 0.0 0.0 0.0 0.0 0.0 0.0 0.0 0.0 0.0 0.0 0.0 0.0 0.0 0.0 0.0 0.0 0.0 16.5 8.8 1.1 0.0 0.0 0.0 0.0 0.0 0.0 0.0 5.5 19.7 22.9 15.8 6.5 6.7 5.1 4.5 5.3 1.9 6.5 6.3 14.3 9.5 5.5 3.8 3.2 2.3 1.3 0.2 0.1 0.0
0.0 0.0 0.0 0.0 0.0 0.0 0.0 0.0 0.0 0.0 0.0 0.0 0.0 0.0 0.0 0.0 0.0 0.0 26.1 0.0 0.0 0.0 7.0 9.7 3.3 2.9 0.0 0.0 0.0 0.0 0.0 0.0 5.2 14.5 16.6 10.7 0.0 2.9 12.6 7.0 1.2 1.6 2.1 3.7 6.5 8.7 6.8 5.2 3.6 2.7 2.1 1.5 0.3 0.0
0.0 0.0 0.0 0.0 0.0 0.0 0.0 0.0 0.0 0.0 0.0 0.0 0.0 0.0 0.0 0.0 0.0 0.1 16.0 0.0 0.0 0.0 10.5 15.2 5.9 2.7 0.0 0.0 0.0 0.0 0.0 1.3 3.1 8.9 10.6 4.4 1.4 1.5 10.8 8.0 1.4 1.8 1.9 2.6 3.0 3.6 4.0 4.0 3.5 2.2 1.3 1.4 0.7 0.4
0.0 0.0 0.0 0.0 0.0 0.0 0.0 0.0 0.0 0.0 0.0 0.0 0.0 0.0 0.0 0.0 0.0 2.0 0.0 0.0 0.0 0.0 1.1 17.0 10.7 7.1 0.0 3.0 5.5 0.0 2.0 3.6 8.5 7.3 7.9 3.8 3.5 6.8 15.0 0.4 0.3 0.7 0.6 1.7 1.4 0.9 1.6 1.6 1.5 1.3 0.9 0.7 0.5 0.4
0.0 0.0 0.0 0.0 0.0 0.0 0.0 0.0 0.0 0.0 0.0 0.0 0.0 0.0 0.0 0.0 26.0 3.2 0.0 0.0 0.0 0.0 22.0 8.5 5.7 12.5 0.0 2.5 1.2 3.7 2.1 15.2 3.4 6.7 2.1 2.3 9.4 14.5 6.9 1.6 1.0 0.5 0.5 0.4 0.5 0.1 0.4 0.9 1.0 0.9 0.9 0.7 0.7 1.9
0.0 0.0 0.0 0.0 0.0 0.0 0.0 0.0 0.0 0.0 0.0 0.0 0.0 19.0 63.3 14.6 0.0 0.0 0.0 25.6 24.8 19.1 9.5 7.1 0.5 9.7 0.5 8.1 10.6 8.8 8.9 10.1 10.6 4.8 0.3 8.6 5.5 5.3 2.6 1.6 0.3 1.9 0.4 0.4 0.7 0.7 0.1 0.3 0.4 0.8 0.8 0.3 0.5 0.9
0.0 0.0 0.0 0.0 0.0 0.0 0.0 0.0 0.0 0.0 0.0 0.0 26.4 32.7 6.1 0.0 0.0 14.4 31.0 25.4 15.9 13.5 3.3 1.5 1.0 3.8 0.1 13.2 14.7 8.6 15.3 7.4 7.1 3.9 5.0 7.7 4.3 4.2 2.8 4.0 3.2 2.5 1.5 1.4 1.0 0.4 0.0 0.1 1.1 1.1 0.7 1.4 0.7 0.6
0.0 0.0 0.0 0.0 0.0 0.0 0.0 0.0 0.0 0.0 0.0 0.0 0.0 0.0 1.5 11.4 23.9 23.8 18.1 12.5 4.5 3.8 3.6 3.5 3.4 2.5 8.2 2.7 14.3 16.1 17.3 12.8 9.3 5.2 13.2 6.1 6.9 3.7 3.6 2.7 2.7 3.1 2.7 1.5 0.8 1.9 2.3 1.4 0.7 0.2 0.5 0.7 0.5 0.5
0.0 0.0 0.0 0.0 0.0 0.0 0.0 0.0 0.0 0.0 0.0 0.0 11.0 25.0 31.5 27.5 26.4 17.4 8.6 4.3 3.3 2.2 2.9 3.3 6.2 4.2 3.7 2.2 16.3 13.4 12.3 13.4 5.1 17.6 9.4 5.4 3.4 1.6 1.3 0.9 1.5 1.9 2.2 2.3 2.3 1.8 1.8 3.3 3.7 3.3 4.0 5.8 5.8 7.5
0.0 0.0 0.0 0.0 0.0 0.0 0.0 0.0 0.0 0.0 0.0 14.8 19.1 24.8 24.5 19.7 12.7 9.1 4.0 3.2 2.3 3.0 3.3 4.7 9.1 8.6 7.1 10.5 14.7 18.8 10.9 8.7 13.1 13.1 5.8 8.2 8.2 5.0 2.4 2.0 1.7 3.2 3.7 3.5 4.1 5.6 6.0 7.3 8.9 10.3 10.9 11.9 10.4 11.6
0.0 0.0 0.0 0.0 0.0 0.0 0.0 0.0 0.0 0.0 7.4 15.7 14.9 16.2 10.7 12.9 8.2 7.0 5.5 3.9 3.6 5.3 8.7 12.2 13.8 12.0 11.9 14.7 10.5 10.4 12.0 8.9 6.9 6.7 12.4 11.0 7.6 3.8 3.2 2.5 3.0 4.5 5.3 6.2 6.5 6.4 7.1 6.7 5.5 7.8 8.9 8.7 7.0 7.6
0.0 0.0 0.0 0.0 0.0 0.0 0.0 0.0 1.1 2.5 7.9 7.9 8.5 8.2 7.6 9.1 9.3 8.9 7.7 7.8 3.6 8.4 5.1 12.2 18.7 18.2 15.8 11.2 10.4 7.5 6.0 6.4 10.4 9.4 7.9 5.1 4.3 4.0 4.3 4.7 6.3 7.0 6.9 7.0 6.7 5.9 5.7 5.4 4.5 5.6 6.1 5.6 5.8 4.8
0.0 2.0 0.0 0.0 0.0 0.0 0.0 3.2 3.9 5.9 6.0 5.4 8.0 8.6 7.5 8.3 10.8 9.7 8.8 7.8 4.2 10.7 11.3 9.1 10.5 11.3 10.1 7.9 8.6 7.8 10.4 11.2 10.9 9.1 5.5 4.5 5.0 5.9 7.0 7.6 8.2 7.9 7.2 6.2 5.8 5.4 5.8 5.4 4.3 3.2 4.3 6.2 4.7 4.6
0.4 0.0 0.0 0.0 0.0 0.0 3.9 2.7 3.1 3.0 3.1 5.9 8.2 10.3 7.9 11.3 10.8 8.8 8.2 6.7 10.3 9.4 6.2 10.2 3.5 4.7 5.1 5.7 6.7 11.7 10.4 9.0 6.7 6.8 8.0 8.2 7.7 8.0 8.7 9.1 9.6 8.1 6.9 7.1 6.4 6.1 6.2 5.9 4.6 5.6 5.2 5.2 3.9 4.0
0.4 0.0 0.0 0.0 0.0 4.1 6.6 5.2 1.7 3.8 6.4 6.1 7.7 6.6 5.9 7.5 7.7 8.7 7.3 6.3 9.7 8.7 8.1 7.9 6.3 5.6 8.2 9.6 9.8 9.1 8.9 7.0 8.1 9.2 9.9 9.9 9.4 9.0 9.9 9.2 9.0 8.6 7.7 8.1 6.6 6.1 6.4 6.0 5.3 5.0 4.7 4.1 3.9 3.9
0.0 0.0 0.0 0.0 0.0 2.6 3.0 2.9 1.1 0.4 4.5 5.4 5.4 3.9 3.1 5.1 3.6 2.7 2.4 3.9 6.0 10.7 10.1 8.3 10.3 12.6 12.2 12.3 11.4 10.2 10.2 7.8 6.6 6.0 8.8 10.5 11.3 8.7 9.1 7.6 7.7 7.5 6.2 6.3 6.2 5.6 4.6 4.1 4.2 3.9 3.3 2.5 3.0 3.0
0.0 0.0 0.0 0.0 0.2 0.2 0.9 2.1 2.4 1.1 1.7 2.6 1.6 0.8 2.3 0.5 0.4 0.5 0.4 1.5 6.1 10.0 12.1 14.1 13.6 14.0 14.1 13.1 10.3 8.6 8.5 6.6 7.3 5.6 6.9 9.3 10.2 6.5 7.5 7.7 6.7 5.9 5.2 5.7 5.2 5.5 4.2 4.0 3.2 2.7 3.3 3.7 3.0 3.7
0.0 0.0 2.3 0.0 2.7 1.9 1.4 0.0 0.5 1.5 1.4 1.3 0.9 1.3 1.4 1.7 0.9 1.1 0.5 1.5 6.9 9.4 10.4 10.8 10.7 9.6 8.7 9.8 10.7 9.0 9.5 6.1 5.3 4.9 5.6 4.8 6.8 6.8 7.7 8.1 6.2 6.1 5.8 5.6 4.3 3.7 3.1 2.7 2.4 2.4 2.7 3.1 3.2 3.8
0.0 3.1 6.4 3.9 3.8 1.0 0.5 0.2 0.5 0.4 0.8 1.0 1.0 1.2 1.3 2.7 2.0 0.5 1.1 1.6 6.4 8.8 7.0 5.6 6.7 6.5 6.8 8.6 6.1 6.5 7.4 5.8 5.8 6.0 6.1 6.0 5.8 5.9 5.3 5.7 4.9 4.0 3.8 4.0 3.1 3.3 3.5 2.9 2.6 2.9 2.9 2.6 3.9 3.6
0.0 5.9 6.5 4.2 2.7 2.4 0.9 1.6 0.7 0.3 0.2 0.6 0.9 0.5 0.9 0.9 0.1 0.8 1.9 4.1 6.9 4.3 3.7 5.1 4.2 3.9 3.9 3.7 4.9 5.8 7.2 5.2 4.6 4.8 5.2 3.2 2.8 3.3 2.4 2.9 3.0 3.2 3.7 3.3 2.8 3.3 3.2 3.8 3.9 3.4 3.1 3.5 3.9 3.4
3.8 2.5 3.4 2.6 1.3 1.0 0.4 0.4 0.7 0.4 0.3 0.1 0.3 0.6 0.9 0.0 0.7 0.8 1.6 5.1 4.2 3.9 3.8 3.5 2.2 2.2 3.3 4.6 5.5 5.2 3.9 2.7 2.6 2.8 3.5 2.4 2.4 2.6 2.3 2.3 2.4 2.7 2.6 2.5 2.6 3.4 3.8 3.4 3.7 3.2 3.1 3.1 3.6 3.5
2.1 0.6 0.9 0.9 0.8 0.6 0.1 0.3 0.3 0.5 0.2 0.5 1.0 0.7 0.3 0.7 0.8 1.9 3.2 5.5 4.6 4.3 4.6 4.5 3.6 2.2 2.0 2.1 2.4 2.2 2.3 1.8 1.5 1.9 2.4 1.7 2.0 2.6 2.4 2.3 2.3 2.3 2.0 3.1 3.7 4.1 3.2 2.6 2.9 2.5 3.2 2.9 3.5 3.6
1.2 1.0 0.3 0.0 1.5 2.1 1.9 1.2 1.2 1.4 1.4 1.6 1.6 1.1 1.6 1.8 2.4 3.9 4.2 4.1 3.6 3.8 2.8 2.5 1.7 1.5 1.8 1.9 1.1 1.1 0.9 0.6 0.8 1.8 2.2 1.8 1.7 1.9 2.3 3.9 4.0 4.0 2.6 3.0 3.4 3.6 3.6 3.5 3.4 3.1 3.2 3.6 3.4 3.7
0.2 0.4 0.8 1.5 2.2 2.3 3.4 2.7 2.4 2.6 2.8 2.5 2.3 2.1 2.0 2.2 3.7 4.7 4.3 3.9 3.2 1.8 1.2 1.0 1.0 1.2 1.3 1.6 1.6 1.5 1.3 1.1 1.2 1.5 1.6 1.6 1.4 2.2 2.5 2.2 2.2 1.7 1.8 2.3 2.5 2.4 2.9 3.3 3.9 3.8 4.0 3.7 3.7 3.4
0.7 0.7 0.7 1.0 1.3 1.0 1.7 2.3 2.7 2.8 2.2 2.0 2.2 2.0 2.1 2.4 5.2 5.0 4.4 3.3 2.4 1.6 1.6 1.5 2.3 1.3 1.2 2.1 1.2 1.1 1.5 1.8 2.7 3.0 3.5 4.5 3.6 3.1 2.0 1.7 1.6 1.6 1.4 1.6 1.5 1.7 2.4 2.6 3.1 3.0 4.0 3.9 4.2 4.2
0.4 0.4 0.3 0.1 0.3 0.4 2.6 1.4 1.8 1.5 0.3 0.9 0.5 0.5 0.7 4.0 6.0 4.5 4.0 3.0 2.7 3.1 3.7 2.9 2.6 1.6 2.2 1.1 2.5 1.6 2.0 2.1 2.6 3.4 4.2 3.9 3.6 2.9 1.6 1.4 1.2 1.3 1.3 1.5 1.6 1.5 1.6 1.2 1.7 1.9 2.4 2.6 3.9 4.5
0.5 1.1 1.4 1.0 1.3 2.3 1.9 0.8 1.1 1.2 1.4 1.3 1.4 1.4 2.2 3.2 4.4 2.8 3.1 4.3 2.7 2.2 1.8 1.9 1.9 2.3 2.2 2.2 2.7 2.4 3.3 2.8 2.7 2.9 3.3 3.6 2.7 1.9 1.6 1.2 1.3 1.2 1.3 1.2 1.4 1.6 1.9 1.7 2.5 2.8 2.3 2.5 2.6 3.1
1.4 2.2 2.4 2.1 2.7 2.2 2.3 3.4 2.3 2.6 2.1 2.1 2.1 1.1 2.4 2.5 1.8 3.3 2.4 2.7 3.1 2.9 2.6 2.9 3.0 3.6 3.6 4.3 3.8 3.7 3.4 2.9 2.3 2.0 2.0 1.9 1.9 1.6 1.3 0.9 1.2 1.4 1.4 1.3 1.4 1.4 1.5 2.1 2.6 2.7 2.8 2.4 2.5 2.4
1.4 1.7 1.8 2.4 2.2 2.6 2.8 3.5 2.9 3.0 2.6 2.4 2.6 2.7 2.9 2.3 2.7 4.3 2.0 2.5 5.6 5.8 4.7 4.4 4.8 4.6 4.7 3.9 3.2 3.3 3.1 2.6 2.0 1.6 1.5 1.2 0.9 0.7 0.7 1.0 1.0 1.3 1.4 1.5 1.6 1.5 1.5 1.4 1.6 1.6 1.5 1.5 1.5 1.3

GFSWCAN_prec_snow_231.txt.gz
Snowfall_Accumulation
0.0 0.0 0.0 0.0 0.0 0.0 0.0 0.0 0.0 0.0 0.0 0.0 0.0 0.0 0.0 0.0 0.0 0.0 0.0 0.0 0.0 24.4 6.7 0.0 0.0 1.1 1.2 0.7 5.4 5.9 8.6 11.3 10.1 12.2 13.7 18.7 14.3 5.6 3.2 3.4 7.4 3.8 9.5 11.0 12.3 18.2 14.0 0.0 0.0 2.4 2.7 0.6 0.6 0.5
0.0 0.0 0.0 0.0 0.0 0.0 0.0 0.0 0.0 0.0 0.0 0.0 0.0 0.0 0.0 0.0 0.0 0.0 0.0 0.0 0.0 2.3 8.7 0.0 0.0 0.0 0.0 0.0 0.0 0.1 1.7 2.5 2.4 9.1 9.2 8.5 16.3 11.0 6.5 7.2 0.0 10.0 4.3 8.7 6.7 8.1 2.0 0.3 1.5 1.2 0.6 0.3 0.5 0.0
0.0 0.0 0.0 0.0 0.0 0.0 0.0 0.0 0.0 0.0 0.0 0.0 0.0 0.0 0.0 0.0 0.0 0.0 0.0 0.0 0.0 14.8 10.6 0.0 3.4 0.0 0.0 0.0 0.0 2.6 0.0 0.0 0.0 0.0 7.0 11.0 19.7 5.8 11.1 6.5 5.6 4.7 2.6 8.3 4.4 3.1 0.9 0.2 0.2 0.2 0.3 0.2 0.0 0.2
0.0 0.0 0.0 0.0 0.0 0.0 0.0 0.0 0.0 0.0 0.0 0.0 0.0 0.0 0.0 0.0 0.0 0.0 0.0 0.0 0.0 0.5 21.0 12.8 0.0 0.0 0.0 0.0 0.0 0.0 0.0 0.0 0.0 0.0 22.9 24.5 21.0 4.4 10.7 4.0 3.2 1.8 3.9 9.2 8.7 4.3 2.2 0.9 1.1 1.8 0.5 0.1 0.0 0.0
0.0 0.0 0.0 0.0 0.0 0.0 0.0 0.0 0.0 0.0 0.0 0.0 0.0 0.0 0.0 0.0 0.0 0.0 0.0 0.0 0.0 0.0 16.6 8.8 1.1 0.0 0.0 0.0 0.0 0.0 0.0 0.0 6.3 21.6 26.0 18.9 7.8 8.8 6.5 6.5 6.3 1.9 6.5 6.3 14.3 9.5 5.5 3.8 3.2 2.3 1.3 0.2 0.1 0.0
0.0 0.0 0.0 0.0 0.0 0.0 0.0 0.0 0.0 0.0 0.0 0.0 0.0 0.0 0.0 0.0 0.0 0.0 28.9 0.0 0.0 0.0 7.0 9.7 3.3 2.9 0.0 0.0 0.0 0.0 0.0 0.0 5.2 15.5 17.6 11.5 0.0 2.9 14.4 7.9 1.2 1.6 2.1 3.7 6.5 8.7 6.8 5.2 3.6 2.7 2.1 1.5 0.3 0.0
0.0 0.0 0.0 0.0 0.0 0.0 0.0 0.0 0.0 0.0 0.0 0.0 0.0 0.0 0.0 0.0 0.0 0.1 17.5 0.0 0.0 0.0 10.5 15.4 6.0 2.7 0.0 0.0 0.0 0.0 0.0 1.3 3.1 8.9 11.2 4.8 1.6 1.5 13.2 9.2 1.4 1.8 1.9 2.6 3.0 3.6 4.0 4.0 3.5 2.2 1.3 1.4 0.7 0.4
0.0 0.0 0.0 0.0 0.0 0.0 0.0 0.0 0.0 0.0 0.0 0.0 0.0 0.0 0.0 0.0 0.0 2.0 0.0 0.0 0.0 0.0 1.1 17.2 10.8 7.1 0.0 3.0 5.6 0.0 2.1 3.6 8.9 7.3 8.5 3.8 4.0 8.0 16.8 0.4 0.3 0.7 0.6 1.7 1.4 0.9 1.6 1.6 1.5 1.3 0.9 0.7 0.5 0.4
0.0 0.0 0.0 0.0 0.0 0.0 0.0 0.0 0.0 0.0 0.0 0.0 0.0 0.0 0.0 0.0 28.6 3.2 0.0 0.0 0.0 0.0 22.3 8.5 5.7 12.6 0.0 2.5 1.2 3.7 2.2 15.5 3.4 7.5 2.7 3.0 10.2 15.4 6.9 1.6 1.0 0.5 0.5 0.4 0.5 0.1 0.4 0.9 1.0 0.9 0.9 0.7 0.7 1.9
0.0 0.0 0.0 0.0 0.0 0.0 0.0 0.0 0.0 0.0 0.0 0.0 0.0 19.0 65.9 14.6 0.0 0.0 0.0 27.4 27.0 20.4 9.5 7.1 0.5 9.8 0.5 8.1 10.7 8.9 9.1 10.6 11.2 4.9 0.5 9.2 5.5 5.3 2.6 1.6 0.3 1.9 0.4 0.4 0.7 0.7 0.1 0.3 0.4 0.8 0.8 0.3 0.5 0.9
0.0 0.0 0.0 0.0 0.0 0.0 0.0 0.0 0.0 0.0 0.0 0.0 27.0 34.3 6.1 0.0 0.0 15.2 34.3 28.3 18.5 14.6 3.3 1.5 1.0 3.8 0.1 13.3 14.8 8.7 15.6 8.0 7.7 4.2 5.5 8.0 4.3 4.2 2.8 4.0 3.2 2.5 1.5 1.4 1.0 0.4 0.0 0.1 1.1 1.1 0.7 1.4 0.7 1.5
0.0 0.0 0.0 0.0 0.0 0.0 0.0 0.0 0.0 0.0 0.0 0.0 0.0 0.0 1.5 11.4 24.4 24.8 19.0 12.5 4.6 3.9 3.6 3.5 3.5 2.5 8.2 2.7 14.5 16.4 17.8 13.0 9.6 5.4 13.3 6.1 6.9 3.7 3.6 2.7 2.7 3.1 2.7 1.5 0.8 1.9 2.3 1.4 0.7 0.2 0.5 1.4 1.2 1.6
0.0 0.0 0.0 0.0 0.0 0.0 0.0 0.0 0.0 0.0 0.0 0.0 11.0 25.0 31.6 27.6 26.5 17.4 8.6 4.3 3.4 2.2 2.9 3.4 6.3 4.3 3.9 2.2 16.5 13.7 12.7 13.9 5.1 17.7 9.4 5.4 3.4 1.6 1.3 0.9 1.5 1.9 2.2 2.3 2.3 1.8 1.8 3.6 4.1 4.1 5.2 7.8 7.5 8.1
0.0 0.0 0.0 0.0 0.0 0.0 0.0 0.0 0.0 0.0 0.0 14.8 19.1 24.8 24.5 19.7 12.7 9.2 4.0 3.3 2.3 3.0 3.3 4.7 9.3 8.9 7.4 11.0 15.2 19.2 11.2 8.8 13.2 13.2 5.8 8.2 8.2 5.0 2.4 2.0 1.7 3.2 3.7 3.5 4.2 5.7 6.0 7.6 9.3 10.9 12.0 12.8 11.0 11.6
0.0 0.0 0.0 0.0 0.0 0.0 0.0 0.0 0.0 0.0 7.4 15.7 14.9 16.2 10.7 12.9 8.2 7.0 5.5 3.9 3.6 5.3 8.7 12.2 13.9 12.0 12.1 15.3 10.7 10.6 12.2 9.0 6.9 6.7 12.6 11.0 7.6 3.8 3.2 2.5 3.0 4.6 5.4 6.2 6.5 6.5 7.2 6.7 5.5 7.8 9.0 8.7 7.0 7.6
0.0 0.0 0.0 0.0 0.0 0.0 0.0 0.0 1.1 2.5 7.9 7.9 8.5 8.2 7.6 9.1 9.3 8.9 7.7 7.8 3.6 8.4 5.1 12.2 18.8 18.3 16.0 11.5 10.6 7.6 6.1 6.4 10.4 9.5 7.9 5.1 4.3 4.0 4.4 4.9 6.7 7.3 7.0 7.0 6.7 5.9 5.7 5.4 4.5 5.6 6.1 5.6 5.8 4.8
0.0 2.0 0.0 0.0 0.0 0.0 0.0 3.2 3.9 5.9 6.0 5.4 8.0 8.6 7.5 8.3 10.8 9.7 8.8 7.8 4.2 10.7 11.4 9.1 10.5 11.3 10.2 8.0 8.7 7.8 10.4 11.3 10.9 9.1 5.5 4.5 5.0 5.9 7.0 7.9 9.4 9.2 7.2 6.2 5.8 5.4 5.8 5.4 4.3 3.2 4.3 6.2 4.7 4.6
0.4 0.0 0.0 0.0 0.0 0.0 3.9 2.7 3.1 3.0 3.1 5.9 8.2 10.3 7.9 11.3 10.8 8.8 8.3 6.7 10.3 9.4 6.3 10.3 3.5 4.7 5.1 5.7 6.8 11.9 10.5 9.0 6.7 6.8 8.0 8.2 7.7 8.0 8.7 9.1 9.6 8.1 6.9 7.1 6.4 6.1 6.2 5.9 4.6 5.6 5.2 5.2 3.9 4.0
0.4 0.0 0.0 0.0 0.0 4.1 6.6 5.2 1.7 3.8 6.4 6.1 7.7 6.6 5.9 7.5 7.7 8.7 7.3 6.3 9.7 8.7 8.3 8.0 6.3 5.6 8.2 9.6 9.8 9.1 8.9 7.0 8.1 9.2 9.9 9.9 9.4 9.0 10.0 9.2 9.0 8.6 7.7 8.1 6.6 6.1 6.4 6.0 5.3 5.0 4.7 4.1 3.9 3.9
0.0 0.0 0.0 0.0 0.0 2.6 3.0 2.9 1.1 0.4 4.5 5.4 5.4 3.9 3.1 5.1 3.6 2.7 2.5 4.1 6.4 11.4 10.7 8.8 10.3 12.7 12.3 12.3 11.4 10.2 10.2 7.8 6.6 6.0 8.8 10.5 11.4 8.7 9.1 7.6 7.7 7.5 6.2 6.3 6.2 5.6 4.6 4.1 4.2 3.9 3.3 2.5 3.0 3.0
0.0 0.0 0.0 0.0 0.2 0.2 0.9 2.1 2.4 1.1 1.7 2.6 1.6 0.8 2.5 0.5 0.6 0.7 0.6 1.7 7.0 10.6 12.2 14.1 13.6 14.0 14.1 13.1 10.3 8.6 8.5 6.6 7.3 5.6 6.9 9.3 10.2 6.5 7.5 7.7 6.7 5.9 5.2 5.7 5.2 5.5 4.2 4.0 3.2 2.7 3.3 3.7 3.0 3.7
0.0 0.0 2.3 0.0 2.7 1.9 1.4 0.0 0.5 1.5 1.4 1.3 0.9 1.4 1.8 1.9 1.0 1.4 0.7 1.9 7.1 9.5 10.5 10.9 10.7 9.6 8.7 9.8 10.7 9.0 9.5 6.1 5.3 4.9 5.6 4.8 6.8 6.8 7.7 8.1 6.2 6.1 5.8 5.6 4.3 3.7 3.1 2.7 2.4 2.4 2.7 3.2 3.2 3.9
0.0 3.1 6.4 3.9 3.8 1.0 0.5 0.2 0.5 0.4 0.8 1.0 1.1 1.3 1.3 2.7 2.4 0.7 1.3 1.7 6.4 8.8 7.0 5.6 6.7 6.5 6.8 8.6 6.1 6.5 7.4 5.8 5.8 6.0 6.1 6.0 5.8 5.9 5.3 5.7 4.9 4.0 3.8 4.0 3.1 3.3 3.5 2.9 2.6 2.9 2.9 2.6 4.0 3.7
0.0 5.9 6.5 4.2 2.7 2.4 0.9 1.6 0.7 0.3 0.2 0.6 1.0 0.5 0.9 0.9 0.1 0.9 2.0 4.1 6.9 4.3 3.7 5.1 4.2 3.9 3.9 3.7 4.9 5.8 7.2 5.2 4.6 4.8 5.2 3.2 2.8 3.3 2.4 2.9 3.0 3.2 3.7 3.3 2.8 3.3 3.2 3.8 3.9 3.4 3.1 3.5 4.0 3.4
3.8 2.5 3.4 2.6 1.3 1.0 0.4 0.4 0.7 0.4 0.3 0.1 0.3 0.6 0.9 0.1 0.7 0.8 1.6 5.1 4.2 3.9 3.8 3.5 2.2 2.2 3.3 4.6 5.5 5.2 3.9 2.7 2.6 2.8 3.5 2.4 2.4 2.6 2.3 2.3 2.4 2.7 2.6 2.5 2.6 3.4 3.8 3.4 3.7 3.2 3.1 3.1 3.7 3.5
2.1 0.6 0.9 0.9 0.8 0.6 0.1 0.3 0.3 0.5 0.2 0.5 1.0 0.7 0.3 0.7 0.8 1.9 3.2 5.5 4.6 4.3 4.6 4.5 3.6 2.2 2.0 2.1 2.4 2.2 2.3 1.8 1.5 1.9 2.4 1.7 2.0 2.6 2.4 2.4 2.3 2.3 2.0 3.1 3.7 4.1 3.2 2.6 2.9 2.5 3.2 2.9 3.5 3.6
1.2 1.0 0.3 0.0 1.5 2.1 1.9 1.2 1.2 1.4 1.4 1.6 1.6 1.1 1.6 1.8 2.4 3.9 4.2 4.1 3.6 3.8 2.8 2.5 1.7 1.5 1.8 1.9 1.1 1.1 0.9 0.6 0.8 1.8 2.2 1.8 1.7 1.9 2.3 3.9 4.0 4.0 2.6 3.0 3.4 3.6 3.6 3.5 3.4 3.1 3.2 3.6 3.4 3.7
0.2 0.4 0.8 1.5 2.2 2.3 3.4 2.7 2.4 2.6 2.8 2.5 2.3 2.1 2.0 2.2 3.7 4.7 4.3 3.9 3.2 1.8 1.2 1.0 1.0 1.2 1.3 1.6 1.6 1.5 1.3 1.1 1.2 1.5 1.6 1.6 1.4 2.2 2.5 2.2 2.2 1.7 1.8 2.3 2.5 2.4 2.9 3.3 3.9 3.9 4.0 3.7 3.7 3.4
0.8 0.7 0.7 1.0 1.3 1.0 1.7 2.3 2.7 2.8 2.2 2.0 2.2 2.0 2.1 2.4 5.2 5.0 4.4 3.3 2.4 1.6 1.6 1.5 2.3 1.3 1.2 2.1 1.2 1.1 1.5 1.8 2.7 3.0 3.5 4.5 3.6 3.1 2.0 1.7 1.6 1.6 1.4 1.6 1.5 1.7 2.4 2.6 3.1 3.0 4.0 3.9 4.2 4.3
0.5 0.4 0.3 0.1 0.3 0.4 2.6 1.4 1.8 1.5 0.3 0.9 0.5 0.5 0.7 4.0 6.0 4.5 4.0 3.0 2.7 3.1 3.8 2.9 2.6 1.6 2.2 1.1 2.5 1.6 2.0 2.1 2.6 3.4 4.2 3.9 3.6 2.9 1.6 1.4 1.2 1.3 1.3 1.5 1.6 1.5 1.6 1.2 1.7 1.9 2.4 2.6 3.9 4.5
0.6 1.2 1.4 1.0 1.4 2.4 1.9 0.8 1.1 1.2 1.4 1.3 1.4 1.4 2.2 3.2 4.4 2.8 3.1 4.3 2.7 2.2 1.8 1.9 2.0 2.4 2.2 2.2 2.7 2.4 3.3 2.8 2.7 2.9 3.3 3.6 2.7 1.9 1.6 1.2 1.3 1.2 1.3 1.2 1.4 1.6 1.9 1.8 2.5 2.8 2.4 2.5 2.6 3.1
1.4 2.3 2.5 2.1 2.8 2.2 2.3 3.4 2.3 2.6 2.1 2.1 2.1 1.1 2.4 2.5 1.8 3.3 2.4 2.8 3.1 2.9 2.6 2.9 3.0 3.6 3.6 4.3 3.8 3.7 3.4 2.9 2.3 2.0 2.0 1.9 1.9 1.6 1.3 0.9 1.2 1.4 1.4 1.3 1.4 1.4 1.5 2.1 2.6 2.7 2.8 2.4 2.5 2.4
1.7 1.9 2.1 2.7 2.4 2.7 2.8 3.5 2.9 3.1 2.7 2.4 2.6 2.8 2.9 2.3 2.7 4.3 2.0 2.6 5.6 5.8 4.7 4.4 4.8 4.6 4.7 3.9 3.2 3.3 3.1 2.6 2.0 1.6 1.5 1.2 0.9 0.7 0.7 1.0 1.0 1.3 1.4 1.5 1.6 1.5 1.5 1.4 1.6 1.6 1.5 1.5 1.5 1.3

GFSWCAN_prec_snow_237.txt.gz
Snowfall_Accumulation
0.0 0.0 0.0 0.0 0.0 0.0 0.0 0.0 0.0 0.0 0.0 0.0 0.0 0.0 0.0 0.0 0.0 0.0 0.0 0.0 0.0 24.4 6.7 0.0 0.0 1.1 1.2 0.7 5.4 5.9 8.6 11.3 10.1 12.2 13.7 18.7 14.3 5.6 3.2 3.4 7.4 3.8 9.5 11.0 12.3 18.2 14.0 0.0 0.0 2.4 2.7 0.6 0.6 0.5
0.0 0.0 0.0 0.0 0.0 0.0 0.0 0.0 0.0 0.0 0.0 0.0 0.0 0.0 0.0 0.0 0.0 0.0 0.0 0.0 0.0 2.3 8.7 0.0 0.0 0.0 0.0 0.0 0.0 0.1 1.7 2.5 2.4 9.1 9.2 8.5 16.3 11.0 6.5 7.2 0.0 10.0 4.3 8.7 6.7 8.1 2.0 0.3 1.5 1.2 0.6 0.3 0.5 0.0
0.0 0.0 0.0 0.0 0.0 0.0 0.0 0.0 0.0 0.0 0.0 0.0 0.0 0.0 0.0 0.0 0.0 0.0 0.0 0.0 0.0 14.8 10.6 0.0 3.4 0.0 0.0 0.0 0.0 2.6 0.0 0.0 0.0 0.0 9.7 11.0 19.7 5.8 11.1 6.5 5.6 4.7 2.6 8.3 4.4 3.1 0.9 0.2 0.2 0.2 0.3 0.2 0.0 0.2
0.0 0.0 0.0 0.0 0.0 0.0 0.0 0.0 0.0 0.0 0.0 0.0 0.0 0.0 0.0 0.0 0.0 0.0 0.0 0.0 0.0 0.5 24.5 16.3 0.0 0.0 0.0 0.0 0.0 0.0 0.0 0.0 0.0 0.0 26.2 27.2 23.0 7.4 13.9 4.4 3.2 1.8 3.9 9.2 8.7 4.3 2.2 0.9 1.1 1.8 0.5 0.1 0.0 0.0
0.0 0.0 0.0 0.0 0.0 0.0 0.0 0.0 0.0 0.0 0.0 0.0 0.0 0.0 0.0 0.0 0.0 0.0 0.0 0.0 0.0 0.0 19.8 11.1 1.1 0.0 0.0 0.0 0.0 0.0 0.0 0.0 6.3 23.2 30.4 23.1 10.2 11.7 8.1 8.0 6.7 1.9 6.5 6.3 15.5 9.5 5.5 3.8 3.2 2.3 1.3 0.2 0.1 0.0
0.0 0.0 0.0 0.0 0.0 0.0 0.0 0.0 0.0 0.0 0.0 0.0 0.0 0.0 0.0 0.0 0.0 0.0 30.3 0.0 0.0 0.0 7.0 11.6 3.3 2.9 0.0 0.0 0.0 0.0 0.0 0.0 5.2 16.4 19.1 12.3 0.0 2.9 16.0 8.5 1.2 1.6 2.1 3.7 6.5 8.7 6.8 5.2 3.6 2.7 2.1 1.5 0.3 0.0
0.0 0.0 0.0 0.0 0.0 0.0 0.0 0.0 0.0 0.0 0.0 0.0 0.0 0.0 0.0 0.0 0.0 0.1 17.5 0.0 0.0 0.0 10.5 16.6 7.0 2.7 0.0 0.0 0.0 0.0 0.0 1.3 3.1 8.9 11.4 5.0 1.6 1.5 13.6 9.2 1.4 1.8 1.9 2.6 3.0 3.6 4.0 4.0 3.5 2.2 1.3 1.4 0.7 0.4
0.0 0.0 0.0 0.0 0.0 0.0 0.0 0.0 0.0 0.0 0.0 0.0 0.0 0.0 0.0 0.0 0.0 2.0 0.0 0.0 0.0 0.0 1.1 17.6 11.5 7.5 0.0 3.0 5.8 0.0 2.1 3.6 8.9 7.3 8.5 3.8 4.0 8.0 16.9 0.4 0.3 0.7 0.6 1.7 1.4 0.9 1.6 1.6 1.5 1.3 0.9 0.7 0.5 0.4
0.0 0.0 0.0 0.0 0.0 0.0 0.0 0.0 0.0 0.0 0.0 0.0 0.0 0.0 0.0 0.0 28.6 3.2 0.0 0.0 0.0 0.0 22.3 8.5 5.8 12.9 0.0 2.5 1.2 3.7 2.2 15.5 3.4 7.6 2.7 3.0 10.2 15.5 6.9 1.6 1.0 0.5 0.5 0.4 0.5 0.1 0.4 0.9 1.0 0.9 0.9 0.7 0.7 1.9
0.0 0.0 0.0 0.0 0.0 0.0 0.0 0.0 0.0 0.0 0.0 0.0 0.0 19.0 67.1 14.6 0.0 0.0 0.0 27.4 27.0 20.4 9.5 7.1 0.5 9.8 0.5 8.1 10.8 8.9 9.1 10.6 11.3 4.9 0.5 9.3 5.5 5.3 2.6 1.6 0.3 1.9 0.4 0.4 0.7 0.7 0.1 0.3 0.4 0.8 0.8 0.3 0.5 0.9
0.0 0.0 0.0 0.0 0.0 0.0 0.0 0.0 0.0 0.0 0.0 0.0 27.1 35.5 6.1 0.0 0.0 15.2 35.1 29.2 18.5 14.6 3.3 1.5 1.0 3.8 0.1 13.3 14.8 8.7 15.6 8.1 7.7 4.3 5.5 8.1 4.3 4.2 2.8 4.0 3.2 2.5 1.5 1.4 1.0 0.4 0.0 0.1 1.1 1.1 0.7 1.4 0.7 1.5
0.0 0.0 0.0 0.0 0.0 0.0 0.0 0.0 0.0 0.0 0.0 0.0 0.0 0.0 1.5 11.4 24.7 24.8 19.5 12.7 4.6 4.1 3.6 3.5 3.5 2.5 8.2 2.7 14.6 16.4 17.8 13.0 9.6 5.4 13.3 6.1 6.9 3.7 3.6 2.7 2.7 3.1 2.7 1.5 0.8 1.9 2.3 1.4 0.7 0.2 0.5 1.4 1.2 1.6
0.0 0.0 0.0 0.0 0.0 0.0 0.0 0.0 0.0 0.0 0.0 0.0 11.0 25.3 31.6 27.7 26.5 17.6 8.8 4.3 3.6 2.2 2.9 3.4 6.3 4.3 3.9 2.2 16.5 13.7 12.7 13.9 5.1 17.7 9.4 5.4 3.4 1.6 1.3 0.9 1.5 1.9 2.2 2.3 2.3 1.8 1.8 3.6 4.1 4.1 5.2 7.9 7.7 8.1
0.0 0.0 0.0 0.0 0.0 0.0 0.0 0.0 0.0 0.0 0.0 14.8 19.1 24.8 24.7 19.7 12.9 10.0 4.4 3.7 2.3 3.0 3.3 4.7 9.3 8.9 7.4 11.0 15.2 19.2 11.2 8.8 13.2 13.2 5.8 8.4 8.2 5.0 2.4 2.0 1.7 3.2 3.7 3.5 4.2 5.7 6.0 7.6 9.3 11.2 12.4 13.1 11.0 11.6
0.0 0.0 0.0 0.0 0.0 0.0 0.0 0.0 0.0 0.0 7.4 15.7 14.9 16.3 10.7 13.1 8.2 7.0 5.5 3.9 3.6 5.3 8.7 12.2 13.9 12.2 12.1 15.3 10.7 10.6 12.2 9.0 6.9 6.7 13.1 11.0 7.6 3.8 3.2 2.5 3.0 4.6 5.4 6.2 6.5 6.5 7.2 6.7 5.5 7.8 9.1 8.7 7.0 7.6
0.0 0.0 0.0 0.0 0.0 0.0 0.0 0.0 1.1 2.5 7.9 7.9 8.5 8.2 7.7 9.1 9.3 8.9 7.7 7.8 3.6 8.4 5.1 12.2 18.9 18.5 16.0 11.5 10.7 7.6 6.1 6.4 10.4 9.8 7.9 5.1 4.3 4.0 4.4 4.9 6.7 7.3 7.0 7.0 6.7 5.9 5.7 5.4 4.5 5.6 6.1 5.6 5.8 4.8
0.0 2.0 0.0 0.0 0.0 0.0 0.0 3.2 3.9 5.9 6.0 5.4 8.0 8.6 7.5 8.3 10.8 9.7 8.8 7.8 4.2 10.7 11.5 9.4 10.5 11.3 10.4 8.2 8.7 7.8 10.4 11.3 10.9 9.1 5.5 4.5 5.0 5.9 7.0 7.9 9.4 9.2 7.2 6.2 5.8 5.4 5.8 5.4 4.3 3.2 4.3 6.2 4.7 4.6
0.4 0.0 0.0 0.0 0.0 0.0 3.9 2.7 3.1 3.0 3.1 5.9 8.2 10.3 7.9 11.3 10.8 8.8 8.3 6.7 10.3 9.5 6.3 10.4 3.7 4.9 5.1 5.7 6.8 11.9 10.5 9.0 6.7 6.8 8.0 8.2 7.7 8.0 8.7 9.1 9.6 8.1 6.9 7.1 6.4 6.1 6.2 5.9 4.6 5.6 5.2 5.2 3.9 4.0
0.4 0.0 0.0 0.0 0.0 4.1 6.6 5.2 1.7 3.8 6.4 6.1 7.7 6.6 5.9 7.5 7.7 8.7 7.3 6.3 9.7 8.7 8.3 8.0 6.3 5.6 8.2 9.6 9.8 9.4 8.9 7.0 8.1 9.2 9.9 9.9 9.4 9.0 10.0 9.2 9.0 8.6 7.7 8.1 6.6 6.1 6.4 6.0 5.3 5.0 4.7 4.1 3.9 3.9
0.0 0.0 0.0 0.0 0.0 2.6 3.0 2.9 1.1 0.4 4.5 5.4 5.4 3.9 3.1 5.1 3.6 2.7 2.5 4.1 6.4 11.5 10.8 8.8 10.3 12.7 12.3 12.3 11.4 10.2 10.2 7.8 6.6 6.0 8.8 10.5 11.4 8.7 9.1 7.6 7.7 7.5 6.2 6.3 6.2 5.6 4.6 4.1 4.2 3.9 3.3 2.5 3.0 3.0
0.0 0.0 0.0 0.0 0.2 0.2 0.9 2.1 2.4 1.1 1.7 2.6 1.6 0.8 2.5 0.5 0.6 0.7 0.6 1.7 7.4 10.7 12.2 14.1 13.6 14.0 14.1 13.1 10.3 8.6 8.5 6.6 7.3 5.6 6.9 9.3 10.2 6.5 7.5 7.7 6.7 5.9 5.2 5.7 5.2 5.5 4.2 4.0 3.2 2.7 3.3 3.7 3.0 3.7
0.0 0.0 2.3 0.0 2.7 1.9 1.4 0.0 0.5 1.5 1.4 1.3 0.9 1.4 1.8 1.9 1.0 1.4 0.7 2.1 7.2 9.5 10.5 10.9 10.7 9.6 8.7 9.8 10.7 9.0 9.5 6.1 5.3 4.9 5.6 4.8 6.8 6.8 7.7 8.1 6.2 6.1 5.8 5.6 4.3 3.7 3.1 2.7 2.4 2.4 2.7 3.2 3.2 3.9
0.0 3.1 6.4 3.9 3.8 1.0 0.5 0.2 0.5 0.4 0.8 1.0 1.1 1.3 1.3 2.7 2.5 0.9 1.7 1.7 6.4 8.8 7.0 5.6 6.7 6.5 6.8 8.6 6.1 6.5 7.4 5.8 5.8 6.0 6.1 6.0 5.8 5.9 5.3 5.7 4.9 4.0 3.9 4.1 3.1 3.3 3.5 2.9 2.6 2.9 2.9 2.6 4.1 3.8
0.0 5.9 6.5 4.2 2.7 2.4 0.9 1.6 0.7 0.3 0.2 0.6 1.0 0.5 0.9 1.0 0.2 1.1 2.1 4.1 6.9 4.3 3.7 5.1 4.2 3.9 3.9 3.7 4.9 5.8 7.2 5.2 4.6 4.8 5.2 3.2 2.8 3.3 2.4 2.9 3.0 3.2 3.7 3.3 2.8 3.3 3.2 3.8 3.9 3.4 3.1 3.5 4.0 3.5
4.0 2.5 3.4 2.6 1.3 1.0 0.4 0.4 0.7 0.4 0.3 0.1 0.3 0.7 0.9 0.1 0.8 0.8 1.6 5.1 4.2 3.9 3.8 3.5 2.2 2.2 3.3 4.6 5.5 5.2 3.9 2.7 2.6 2.8 3.5 2.4 2.4 2.6 2.3 2.3 2.4 2.7 2.6 2.5 2.6 3.4 3.8 3.4 3.7 3.2 3.1 3.1 3.7 3.5
2.3 0.6 0.9 0.9 0.8 0.6 0.1 0.3 0.3 0.5 0.2 0.5 1.0 0.7 0.3 0.7 0.8 1.9 3.2 5.5 4.6 4.3 4.6 4.5 3.6 2.2 2.0 2.1 2.4 2.2 2.3 1.8 1.5 1.9 2.4 1.7 2.0 2.6 2.4 2.4 2.4 2.5 2.0 3.1 3.7 4.1 3.2 2.6 2.9 2.5 3.2 2.9 3.5 3.6
1.3 1.0 0.3 0.0 1.5 2.1 1.9 1.2 1.2 1.4 1.4 1.6 1.6 1.1 1.6 1.8 2.4 3.9 4.2 4.1 3.6 3.8 2.8 2.5 1.7 1.5 1.8 1.9 1.1 1.1 0.9 0.6 0.8 1.8 2.2 1.8 1.7 1.9 2.3 3.9 4.0 4.0 2.6 3.0 3.4 3.6 3.6 3.5 3.4 3.2 3.2 3.6 3.4 3.7
0.2 0.4 0.8 1.5 2.2 2.3 3.4 2.7 2.4 2.7 2.9 2.5 2.4 2.1 2.0 2.2 3.7 4.7 4.3 3.9 3.2 1.8 1.2 1.0 1.0 1.2 1.3 1.6 1.6 1.5 1.3 1.1 1.2 1.5 1.6 1.6 1.5 2.2 2.5 2.2 2.2 1.7 1.8 2.3 2.5 2.4 2.9 3.3 3.9 3.9 4.1 3.7 3.8 3.5
0.9 0.7 0.7 1.1 1.3 1.0 1.7 2.4 2.7 2.8 2.2 2.0 2.2 2.0 2.1 2.4 5.2 5.0 4.4 3.3 2.4 1.6 1.6 1.5 2.3 1.3 1.2 2.1 1.2 1.1 1.5 1.8 2.7 3.0 3.5 4.5 3.8 3.3 2.0 1.7 1.6 1.6 1.4 1.6 1.5 1.7 2.4 2.6 3.2 3.0 4.0 3.9 4.2 4.3
0.5 0.5 0.5 0.2 0.3 0.4 2.6 1.4 1.8 1.5 0.3 0.9 0.5 0.5 0.7 4.0 6.0 4.5 4.0 3.0 2.7 3.1 3.8 2.9 2.6 1.6 2.2 1.1 2.6 1.7 2.0 2.2 2.6 3.4 4.2 3.9 3.6 2.9 1.7 1.4 1.2 1.3 1.3 1.5 1.6 1.5 1.6 1.2 1.7 1.9 2.4 2.7 3.9 4.5
0.9 1.3 1.6 1.3 1.4 2.4 2.0 0.8 1.1 1.2 1.4 1.3 1.4 1.4 2.3 3.2 4.4 2.8 3.1 4.3 2.7 2.2 1.8 1.9 2.0 2.4 2.2 2.3 2.7 2.5 3.5 2.8 2.7 2.9 3.3 3.6 2.7 1.9 1.6 1.2 1.3 1.2 1.3 1.2 1.4 1.6 1.9 1.8 2.5 2.8 2.4 2.5 2.6 3.1
1.4 2.7 2.9 2.3 3.2 2.2 2.3 3.4 2.3 2.6 2.1 2.1 2.1 1.1 2.4 2.5 1.8 3.3 2.4 2.8 3.1 2.9 2.6 2.9 3.0 3.6 3.6 4.3 3.8 3.7 3.4 2.9 2.3 2.0 2.0 1.9 1.9 1.6 1.3 0.9 1.2 1.4 1.4 1.3 1.4 1.4 1.5 2.1 2.6 2.7 2.8 2.4 2.5 2.4
1.9 2.2 2.5 3.1 3.1 3.2 2.8 3.5 3.0 3.1 2.7 2.4 2.8 2.8 2.9 2.3 2.8 4.4 2.0 2.6 5.7 5.8 4.7 4.4 4.8 4.6 4.7 3.9 3.2 3.3 3.1 2.6 2.0 1.6 1.5 1.2 0.9 0.7 0.7 1.0 1.0 1.3 1.4 1.5 1.6 1.5 1.5 1.4 1.6 1.6 1.5 1.5 1.5 1.3

GFSWCAN_prec_snow_240.txt.gz
Snowfall_Accumulation
0.0 0.0 0.0 0.0 0.0 0.0 0.0 0.0 0.0 0.0 0.0 0.0 0.0 0.0 0.0 0.0 0.0 0.0 0.0 0.0 0.0 24.4 6.7 0.0 0.0 1.1 1.2 0.7 5.4 5.9 8.6 11.3 10.1 12.2 13.7 18.7 14.3 5.6 3.2 3.4 7.4 3.8 9.5 11.0 12.3 18.2 14.0 0.0 0.0 2.4 2.7 0.6 0.6 0.5
0.0 0.0 0.0 0.0 0.0 0.0 0.0 0.0 0.0 0.0 0.0 0.0 0.0 0.0 0.0 0.0 0.0 0.0 0.0 0.0 0.0 2.3 8.7 0.0 0.0 0.0 0.0 0.0 0.0 0.1 1.7 2.5 2.4 9.1 9.2 8.5 16.3 11.0 6.5 7.2 0.0 10.0 4.3 8.7 6.7 8.1 2.0 0.3 1.5 1.2 0.6 0.3 0.5 0.0
0.0 0.0 0.0 0.0 0.0 0.0 0.0 0.0 0.0 0.0 0.0 0.0 0.0 0.0 0.0 0.0 0.0 0.0 0.0 0.0 0.0 14.8 10.6 0.0 3.4 0.0 0.0 0.0 0.0 2.6 0.0 0.0 0.0 0.0 9.7 11.0 19.7 5.8 11.1 6.5 5.6 4.7 2.6 8.3 4.4 3.1 0.9 0.2 0.2 0.2 0.3 0.2 0.0 0.2
0.0 0.0 0.0 0.0 0.0 0.0 0.0 0.0 0.0 0.0 0.0 0.0 0.0 0.0 0.0 0.0 0.0 0.0 0.0 0.0 0.0 0.5 25.7 18.2 0.0 0.0 0.0 0.0 0.0 0.0 0.0 0.0 0.0 0.0 26.2 27.2 23.0 7.4 13.9 4.4 3.2 1.8 3.9 9.2 8.7 4.3 2.2 0.9 1.1 1.8 0.5 0.1 0.0 0.0
0.0 0.0 0.0 0.0 0.0 0.0 0.0 0.0 0.0 0.0 0.0 0.0 0.0 0.0 0.0 0.0 0.0 0.0 0.0 0.0 0.0 0.0 21.3 13.3 1.1 0.0 0.0 0.0 0.0 0.0 0.0 0.0 6.3 23.2 30.4 23.1 10.2 11.7 8.1 8.0 6.7 1.9 6.5 6.3 15.5 9.5 5.5 3.8 3.2 2.3 1.3 0.2 0.1 0.0
0.0 0.0 0.0 0.0 0.0 0.0 0.0 0.0 0.0 0.0 0.0 0.0 0.0 0.0 0.0 0.0 0.0 0.0 30.3 0.0 0.0 0.0 7.0 13.3 3.3 2.9 0.0 0.0 0.0 0.0 0.0 0.0 5.2 16.4 21.4 14.5 0.0 2.9 17.1 9.0 1.2 1.6 2.1 3.7 6.5 8.7 6.8 5.2 3.6 2.7 2.1 1.5 0.3 0.0
0.0 0.0 0.0 0.0 0.0 0.0 0.0 0.0 0.0 0.0 0.0 0.0 0.0 0.0 0.0 0.0 0.0 0.1 17.5 0.0 0.0 0.0 10.5 17.8 8.3 2.7 0.0 0.0 0.0 0.0 0.0 1.3 3.1 10.1 12.5 6.0 2.5 1.5 14.2 9.4 1.4 1.8 1.9 2.6 3.0 3.6 4.0 4.0 3.5 2.2 1.3 1.4 0.7 0.4
0.0 0.0 0.0 0.0 0.0 0.0 0.0 0.0 0.0 0.0 0.0 0.0 0.0 0.0 0.0 0.0 0.0 2.0 0.0 0.0 0.0 0.0 1.1 18.8 12.8 8.9 0.0 3.7 6.4 0.0 2.1 3.6 8.9 7.5 8.7 4.0 4.3 8.1 16.9 0.4 0.3 0.7 0.6 1.7 1.4 0.9 1.6 1.6 1.5 1.3 0.9 0.7 0.5 0.4
0.0 0.0 0.0 0.0 0.0 0.0 0.0 0.0 0.0 0.0 0.0 0.0 0.0 0.0 0.0 0.0 28.6 3.2 0.0 0.0 0.0 0.0 22.6 8.8 6.3 13.5 0.0 2.9 1.2 3.7 2.2 15.6 3.4 7.6 2.7 3.0 10.2 15.5 6.9 1.6 1.0 0.5 0.5 0.4 0.5 0.1 0.4 0.9 1.0 0.9 0.9 0.7 0.7 1.9
0.0 0.0 0.0 0.0 0.0 0.0 0.0 0.0 0.0 0.0 0.0 0.0 0.0 19.0 67.1 14.6 0.0 0.0 0.0 27.4 27.0 20.4 9.5 7.2 0.6 10.0 0.5 8.2 10.8 8.9 9.1 10.6 11.3 4.9 0.5 9.3 5.5 5.3 2.6 1.6 0.3 1.9 0.4 0.4 0.7 0.7 0.1 0.3 0.4 0.8 0.8 0.3 0.5 0.9
0.0 0.0 0.0 0.0 0.0 0.0 0.0 0.0 0.0 0.0 0.0 0.0 27.1 35.8 6.1 0.0 0.0 15.2 35.1 29.2 18.5 14.6 3.3 1.6 1.0 3.8 0.1 13.3 14.8 8.7 15.6 8.1 7.7 4.3 5.5 8.1 4.3 4.2 2.8 4.0 3.2 2.5 1.5 1.4 1.0 0.4 0.0 0.1 1.1 1.1 0.7 1.4 0.7 1.5
0.0 0.0 0.0 0.0 0.0 0.0 0.0 0.0 0.0 0.0 0.0 0.0 0.0 0.0 1.5 11.4 24.7 24.8 19.5 12.7 4.6 4.1 3.6 3.5 3.5 2.5 8.2 2.7 14.6 16.4 17.8 13.0 9.6 5.4 13.3 6.1 6.9 3.7 3.6 2.7 2.7 3.1 2.7 1.5 0.8 1.9 2.3 1.4 0.7 0.2 0.5 1.4 1.2 1.6
0.0 0.0 0.0 0.0 0.0 0.0 0.0 0.0 0.0 0.0 0.0 0.0 11.0 25.3 31.6 27.7 26.5 17.6 8.8 4.3 3.6 2.2 2.9 3.4 6.3 4.3 3.9 2.2 16.5 13.7 12.7 13.9 5.1 17.7 9.4 5.4 3.4 1.6 1.3 0.9 1.5 1.9 2.2 2.3 2.3 1.8 1.8 3.6 4.1 4.1 5.2 7.9 7.7 8.1
0.0 0.0 0.0 0.0 0.0 0.0 0.0 0.0 0.0 0.0 0.0 14.8 19.1 24.8 24.7 19.7 12.9 10.0 4.4 3.7 2.3 3.0 3.3 4.7 9.3 8.9 7.4 11.0 15.2 19.2 11.2 8.8 13.2 13.2 5.8 8.4 8.2 5.0 2.4 2.0 1.7 3.2 3.7 3.5 4.2 5.7 6.0 7.6 9.3 11.2 12.4 13.1 11.0 11.6
0.0 0.0 0.0 0.0 0.0 0.0 0.0 0.0 0.0 0.0 7.4 15.7 14.9 16.3 10.7 13.2 8.2 7.0 5.5 3.9 3.6 5.3 8.7 12.2 13.9 12.2 12.1 15.3 10.7 10.6 12.2 9.0 6.9 6.7 13.1 11.0 7.6 3.8 3.2 2.5 3.0 4.6 5.4 6.2 6.5 6.5 7.2 6.7 5.5 7.8 9.1 8.7 7.0 7.6
0.0 0.0 0.0 0.0 0.0 0.0 0.0 0.0 1.1 2.5 7.9 7.9 8.5 8.2 7.7 9.1 9.3 8.9 7.7 7.8 3.6 8.4 5.1 12.2 18.9 18.5 16.0 11.5 10.7 7.6 6.1 6.4 10.4 9.8 7.9 5.1 4.3 4.0 4.4 4.9 6.7 7.3 7.0 7.0 6.7 5.9 5.7 5.4 4.5 5.6 6.1 5.6 5.8 4.8
0.0 2.0 0.0 0.0 0.0 0.0 0.0 3.2 3.9 5.9 6.0 5.4 8.0 8.6 7.5 8.3 10.8 9.7 8.8 7.8 4.2 10.7 11.5 9.4 10.5 11.3 10.4 8.2 8.7 7.8 10.4 11.3 10.9 9.1 5.5 4.5 5.0 5.9 7.0 7.9 9.4 9.2 7.2 6.2 5.8 5.4 5.8 5.4 4.3 3.2 4.3 6.2 4.7 4.6
0.4 0.0 0.0 0.0 0.0 0.0 3.9 2.7 3.1 3.0 3.1 5.9 8.2 10.3 7.9 11.3 10.8 8.8 8.3 6.7 10.3 9.5 6.3 10.4 3.7 4.9 5.1 5.7 6.8 11.9 10.5 9.0 6.7 6.8 8.0 8.2 7.7 8.0 8.7 9.1 9.6 8.1 6.9 7.1 6.4 6.1 6.2 5.9 4.6 5.6 5.2 5.2 3.9 4.0
0.4 0.0 0.0 0.0 0.0 4.1 6.6 5.2 1.7 3.8 6.4 6.1 7.7 6.6 5.9 7.5 7.7 8.7 7.3 6.3 9.7 8.7 8.3 8.0 6.3 5.6 8.2 9.6 9.8 9.4 8.9 7.0 8.1 9.2 9.9 9.9 9.4 9.0 10.0 9.2 9.0 8.6 7.7 8.1 6.6 6.1 6.4 6.0 5.3 5.0 4.7 4.1 3.9 3.9
0.0 0.0 0.0 0.0 0.0 2.6 3.0 2.9 1.1 0.4 4.5 5.4 5.4 3.9 3.1 5.1 3.6 2.7 2.5 4.1 6.4 11.5 10.8 8.8 10.3 12.7 12.3 12.3 11.4 10.2 10.2 7.8 6.6 6.0 8.8 10.5 11.4 8.7 9.1 7.6 7.7 7.5 6.2 6.3 6.2 5.6 4.6 4.1 4.2 3.9 3.3 2.5 3.0 3.0
0.0 0.0 0.0 0.0 0.2 0.2 0.9 2.1 2.4 1.1 1.7 2.6 1.6 0.8 2.5 0.5 0.6 0.7 0.6 1.7 7.4 10.7 12.2 14.1 13.6 14.0 14.1 13.1 10.3 8.6 8.5 6.6 7.3 5.6 6.9 9.3 10.2 6.5 7.5 7.7 6.7 5.9 5.2 5.7 5.2 5.5 4.2 4.0 3.2 2.7 3.3 3.7 3.0 3.7
0.0 0.0 2.3 0.0 2.7 1.9 1.4 0.0 0.5 1.5 1.4 1.3 0.9 1.4 1.8 1.9 1.0 1.4 0.7 2.1 7.2 9.5 10.5 10.9 10.7 9.6 8.7 9.8 10.7 9.0 9.5 6.1 5.3 4.9 5.6 4.8 6.8 6.8 7.7 8.1 6.2 6.1 5.8 5.6 4.3 3.7 3.1 2.7 2.4 2.4 2.7 3.2 3.2 3.9
0.0 3.1 6.4 3.9 3.8 1.0 0.5 0.2 0.5 0.4 0.8 1.0 1.1 1.3 1.3 2.7 2.5 0.9 1.7 1.7 6.4 8.8 7.0 5.6 6.7 6.5 6.8 8.6 6.1 6.5 7.4 5.8 5.8 6.0 6.1 6.0 5.8 5.9 5.3 5.7 4.9 4.0 3.9 4.1 3.1 3.3 3.5 2.9 2.6 2.9 2.9 2.6 4.1 3.8
0.0 5.9 6.5 4.2 2.7 2.4 0.9 1.6 0.7 0.3 0.2 0.6 1.0 0.5 0.9 1.0 0.2 1.1 2.1 4.1 6.9 4.3 3.7 5.1 4.2 3.9 3.9 3.7 4.9 5.8 7.2 5.2 4.6 4.8 5.2 3.2 2.8 3.3 2.4 2.9 3.0 3.2 3.7 3.3 2.8 3.3 3.2 3.8 3.9 3.4 3.1 3.5 4.0 3.5
4.0 2.5 3.4 2.6 1.3 1.0 0.4 0.4 0.7 0.4 0.3 0.1 0.3 0.7 0.9 0.1 0.8 0.8 1.6 5.1 4.2 3.9 3.8 3.5 2.2 2.2 3.3 4.6 5.5 5.2 3.9 2.7 2.6 2.8 3.5 2.4 2.4 2.6 2.3 2.3 2.4 2.7 2.6 2.5 2.6 3.4 3.8 3.4 3.7 3.2 3.1 3.1 3.7 3.5
2.3 0.6 0.9 0.9 0.8 0.6 0.1 0.3 0.3 0.5 0.2 0.5 1.0 0.7 0.3 0.7 0.8 1.9 3.2 5.5 4.6 4.3 4.6 4.5 3.6 2.2 2.0 2.1 2.4 2.2 2.3 1.8 1.5 1.9 2.4 1.7 2.0 2.6 2.4 2.4 2.4 2.6 2.0 3.1 3.7 4.1 3.2 2.6 2.9 2.5 3.2 2.9 3.5 3.6
1.3 1.0 0.3 0.0 1.5 2.1 1.9 1.2 1.2 1.4 1.4 1.6 1.6 1.1 1.6 1.8 2.4 3.9 4.2 4.1 3.6 3.8 2.8 2.5 1.7 1.5 1.8 1.9 1.1 1.1 0.9 0.6 0.8 1.8 2.2 1.8 1.7 1.9 2.3 3.9 4.0 4.0 2.6 3.0 3.4 3.6 3.6 3.5 3.4 3.2 3.2 3.6 3.4 3.7
0.2 0.4 0.8 1.5 2.2 2.3 3.4 2.7 2.4 2.7 2.9 2.5 2.4 2.1 2.0 2.2 3.7 4.7 4.3 3.9 3.2 1.8 1.2 1.0 1.0 1.2 1.3 1.6 1.6 1.5 1.3 1.1 1.2 1.5 1.6 1.6 1.5 2.2 2.5 2.2 2.2 1.7 1.8 2.3 2.5 2.4 2.9 3.3 3.9 3.9 4.1 3.7 3.8 3.5
0.9 0.7 0.7 1.1 1.3 1.0 1.7 2.4 2.7 2.8 2.2 2.0 2.2 2.0 2.1 2.4 5.2 5.0 4.4 3.3 2.4 1.6 1.6 1.5 2.3 1.3 1.2 2.1 1.2 1.1 1.5 1.8 2.7 3.0 3.5 4.6 3.9 3.4 2.0 1.7 1.6 1.6 1.4 1.6 1.5 1.7 2.4 2.6 3.2 3.0 4.0 3.9 4.2 4.3
0.5 0.5 0.5 0.2 0.3 0.4 2.6 1.4 1.8 1.5 0.3 0.9 0.5 0.5 0.7 4.0 6.0 4.5 4.0 3.0 2.7 3.1 3.8 2.9 2.6 1.6 2.2 1.1 2.6 1.8 2.0 2.2 2.6 3.4 4.2 3.9 3.6 2.9 1.7 1.4 1.2 1.3 1.3 1.5 1.6 1.5 1.6 1.2 1.7 1.9 2.4 2.7 3.9 4.5
0.9 1.3 1.6 1.3 1.4 2.4 2.0 0.8 1.1 1.2 1.4 1.3 1.4 1.4 2.3 3.2 4.4 2.8 3.1 4.3 2.7 2.2 1.8 1.9 2.0 2.4 2.2 2.3 2.8 2.5 3.7 3.0 2.7 2.9 3.3 3.6 2.7 1.9 1.6 1.2 1.3 1.2 1.3 1.2 1.4 1.6 1.9 1.8 2.5 2.8 2.4 2.5 2.6 3.1
1.4 2.7 2.9 2.3 3.2 2.2 2.3 3.4 2.3 2.6 2.1 2.1 2.1 1.1 2.4 2.5 1.8 3.3 2.4 2.8 3.1 2.9 2.6 2.9 3.0 3.6 3.6 4.3 3.9 3.8 3.4 2.9 2.3 2.0 2.0 1.9 1.9 1.6 1.3 0.9 1.2 1.4 1.4 1.3 1.4 1.4 1.5 2.1 2.6 2.7 2.8 2.4 2.5 2.4
1.9 2.2 2.5 3.1 3.3 3.2 2.8 3.5 3.0 3.1 2.7 2.4 2.8 2.8 2.9 2.3 2.8 4.5 2.0 2.6 5.7 5.8 4.7 4.4 4.8 4.6 4.7 3.9 3.2 3.3 3.1 2.6 2.0 1.6 1.5 1.2 0.9 0.7 0.7 1.0 1.0 1.3 1.4 1.5 1.6 1.5 1.5 1.4 1.6 1.6 1.5 1.5 1.5 1.3